| time (UTC) | temp F | wind direction | speed MPH | gust MPH | rain 1hr in | rain 24hr in | rain mn in | humidity % | barometer mb |
| 20260506161018 | 83 | 336 | 7.0 | 9.0 | 0.00 | 0.06 | 0.06 | 75 | 1001.5 |
| 20260506161005 | 83 | 336 | 5.0 | 8.0 | 0.00 | 0.06 | 0.06 | 75 | 1001.4 |
| 20260506160704 | 83 | 341 | 2.0 | 11.0 | 0.00 | 0.06 | 0.06 | 76 | 1001.8 |
| 20260506160603 | 83 | 337 | 4.0 | 11.0 | 0.00 | 0.06 | 0.06 | 76 | 1001.9 |
| 20260506160505 | 83 | 340 | 4.0 | 11.0 | 0.00 | 0.06 | 0.06 | 76 | 1001.5 |
| 20260506160405 | 83 | 340 | 6.0 | 11.0 | 0.00 | 0.06 | 0.06 | 76 | 1001.7 |
| 20260506160307 | 83 | 342 | 4.0 | 11.0 | 0.00 | 0.06 | 0.06 | 76 | 1001.7 |
| 20260506160103 | 83 | 341 | 6.0 | 11.0 | 0.00 | 0.06 | 0.06 | 76 | 1001.6 |
| 20260506160007 | 83 | 339 | 7.0 | 11.0 | 0.00 | 0.06 | 0.06 | 77 | 1001.9 |
| 20260506155903 | 83 | 344 | 7.0 | 11.0 | 0.00 | 0.06 | 0.06 | 77 | 1001.9 |
| 20260506155804 | 83 | 340 | 5.0 | 11.0 | 0.00 | 0.06 | 0.06 | 77 | 1001.9 |
| 20260506155705 | 83 | 345 | 4.0 | 11.0 | 0.00 | 0.06 | 0.06 | 77 | 1001.8 |
| 20260506155605 | 83 | 356 | 3.0 | 11.0 | 0.00 | 0.06 | 0.06 | 77 | 1002.1 |
| 20260506155508 | 83 | 355 | 6.0 | 11.0 | 0.00 | 0.06 | 0.06 | 77 | 1001.8 |
| 20260506155405 | 83 | 352 | 4.0 | 7.0 | 0.00 | 0.06 | 0.06 | 77 | 1002.0 |
| 20260506155306 | 82 | 351 | 3.0 | 7.0 | 0.00 | 0.06 | 0.06 | 78 | 1001.8 |
| 20260506155203 | 82 | 337 | 5.0 | 7.0 | 0.00 | 0.06 | 0.06 | 78 | 1002.1 |
| 20260506155105 | 83 | 332 | 3.0 | 7.0 | 0.00 | 0.06 | 0.06 | 77 | 1002.1 |
| 20260506155004 | 83 | 335 | 2.0 | 7.0 | 0.00 | 0.06 | 0.06 | 78 | 1002.0 |
| 20260506154817 | 82 | 338 | 4.0 | 8.0 | 0.00 | 0.06 | 0.06 | 78 | 1002.2 |
| 20260506154804 | 82 | 336 | 4.0 | 8.0 | 0.00 | 0.06 | 0.06 | 78 | 1002.2 |
| 20260506154703 | 82 | 341 | 3.0 | 9.0 | 0.00 | 0.06 | 0.06 | 78 | 1002.0 |
| 20260506154504 | 82 | 349 | 3.0 | 9.0 | 0.00 | 0.06 | 0.06 | 79 | 1002.3 |
| 20260506154403 | 82 | 349 | 2.0 | 9.0 | 0.00 | 0.06 | 0.06 | 79 | 1002.3 |
| 20260506154204 | 82 | 3 | 5.0 | 11.0 | 0.00 | 0.06 | 0.06 | 79 | 1002.4 |
| 20260506154103 | 82 | 1 | 4.0 | 11.0 | 0.00 | 0.06 | 0.06 | 79 | 1002.6 |
| 20260506154003 | 82 | 1 | 3.0 | 11.0 | 0.00 | 0.06 | 0.06 | 79 | 1002.4 |
| 20260506153905 | 82 | 355 | 5.0 | 11.0 | 0.00 | 0.06 | 0.06 | 79 | 1002.6 |
| 20260506153803 | 82 | 347 | 6.0 | 11.0 | 0.00 | 0.06 | 0.06 | 79 | 1002.5 |
| 20260506153717 | 82 | 341 | 3.0 | 8.0 | 0.00 | 0.06 | 0.06 | 79 | 1002.8 |
| 20260506153703 | 82 | 344 | 3.0 | 8.0 | 0.00 | 0.06 | 0.06 | 79 | 1002.8 |
| 20260506153605 | 82 | 359 | 4.0 | 8.0 | 0.00 | 0.06 | 0.06 | 79 | 1002.5 |
| 20260506153404 | 82 | 344 | 4.0 | 11.0 | 0.00 | 0.06 | 0.06 | 80 | 1002.5 |
| 20260506153305 | 82 | 356 | 4.0 | 11.0 | 0.00 | 0.06 | 0.06 | 79 | 1002.4 |
| 20260506153205 | 82 | 352 | 2.0 | 11.0 | 0.00 | 0.06 | 0.06 | 79 | 1002.6 |
| 20260506153105 | 82 | 341 | 3.0 | 11.0 | 0.00 | 0.06 | 0.06 | 80 | 1002.7 |
| 20260506153004 | 82 | 346 | 6.0 | 11.0 | 0.00 | 0.06 | 0.06 | 79 | 1002.8 |
| 20260506152903 | 82 | 353 | 4.0 | 8.0 | 0.00 | 0.06 | 0.06 | 79 | 1002.8 |
| 20260506152804 | 82 | 353 | 4.0 | 9.0 | 0.00 | 0.06 | 0.06 | 80 | 1003.2 |
| 20260506152705 | 82 | 356 | 4.0 | 9.0 | 0.00 | 0.06 | 0.06 | 79 | 1002.7 |
| 20260506152604 | 82 | 3 | 3.0 | 9.0 | 0.00 | 0.06 | 0.06 | 80 | 1002.8 |
| 20260506152505 | 82 | 359 | 4.0 | 9.0 | 0.00 | 0.06 | 0.06 | 80 | 1002.7 |
| 20260506152418 | 82 | 358 | 3.0 | 9.0 | 0.00 | 0.06 | 0.06 | 80 | 1002.8 |
| 20260506152404 | 82 | 357 | 3.0 | 9.0 | 0.00 | 0.06 | 0.06 | 80 | 1002.8 |
| 20260506152305 | 81 | 353 | 6.0 | 9.0 | 0.00 | 0.06 | 0.06 | 80 | 1002.9 |
| 20260506152005 | 81 | 339 | 4.0 | 8.0 | 0.00 | 0.06 | 0.06 | 80 | 1002.9 |
| 20260506151904 | 82 | 340 | 4.0 | 8.0 | 0.00 | 0.06 | 0.06 | 79 | 1002.7 |
| 20260506151803 | 82 | 340 | 4.0 | 7.0 | 0.00 | 0.06 | 0.06 | 79 | 1002.9 |
| 20260506151705 | 82 | 343 | 3.0 | 7.0 | 0.00 | 0.06 | 0.06 | 79 | 1002.8 |
| 20260506151603 | 82 | 342 | 2.0 | 8.0 | 0.00 | 0.06 | 0.06 | 79 | 1002.8 |
| 20260506151504 | 82 | 341 | 3.0 | 9.0 | 0.00 | 0.06 | 0.06 | 79 | 1003.0 |
| 20260506151403 | 82 | 346 | 2.0 | 9.0 | 0.00 | 0.06 | 0.06 | 80 | 1002.8 |
| 20260506151305 | 82 | 352 | 2.0 | 9.0 | 0.00 | 0.06 | 0.06 | 80 | 1003.0 |
| 20260506151204 | 82 | 354 | 3.0 | 9.0 | 0.00 | 0.06 | 0.06 | 80 | 1002.9 |
| 20260506151103 | 81 | 357 | 4.0 | 9.0 | 0.00 | 0.06 | 0.06 | 80 | 1003.0 |
| 20260506151003 | 81 | 356 | 2.0 | 11.0 | 0.00 | 0.06 | 0.06 | 80 | 1003.1 |
| 20260506150904 | 81 | 353 | 4.0 | 11.0 | 0.00 | 0.06 | 0.06 | 80 | 1002.9 |
| 20260506150804 | 81 | 355 | 4.0 | 11.0 | 0.00 | 0.06 | 0.06 | 80 | 1003.0 |
| 20260506150704 | 81 | 346 | 4.0 | 11.0 | 0.00 | 0.06 | 0.06 | 80 | 1003.2 |
| 20260506150603 | 81 | 341 | 4.0 | 11.0 | 0.00 | 0.06 | 0.06 | 80 | 1003.1 |
| 20260506150504 | 81 | 344 | 4.0 | 9.0 | 0.00 | 0.06 | 0.06 | 80 | 1003.0 |
| 20260506150403 | 81 | 344 | 2.0 | 9.0 | 0.00 | 0.06 | 0.06 | 80 | 1003.2 |
| 20260506150305 | 81 | 347 | 4.0 | 9.0 | 0.00 | 0.06 | 0.06 | 80 | 1003.1 |
| 20260506150203 | 81 | 350 | 4.0 | 7.0 | 0.00 | 0.06 | 0.06 | 80 | 1003.4 |
| 20260506150005 | 81 | 340 | 2.0 | 8.0 | 0.00 | 0.06 | 0.06 | 81 | 1003.2 |
| 20260506145903 | 81 | 337 | 4.0 | 8.0 | 0.00 | 0.06 | 0.06 | 81 | 1003.2 |
| 20260506145804 | 81 | 323 | 3.0 | 13.0 | 0.00 | 0.06 | 0.06 | 81 | 1003.2 |
| 20260506145703 | 80 | 325 | 4.0 | 13.0 | 0.00 | 0.06 | 0.06 | 81 | 1003.2 |
| 20260506145604 | 80 | 329 | 5.0 | 13.0 | 0.00 | 0.06 | 0.06 | 81 | 1003.3 |
| 20260506145505 | 81 | 336 | 2.0 | 13.0 | 0.00 | 0.06 | 0.06 | 81 | 1003.3 |
| 20260506145305 | 80 | 341 | 6.0 | 13.0 | 0.00 | 0.06 | 0.06 | 81 | 1003.3 |
| 20260506145204 | 80 | 339 | 5.0 | 11.0 | 0.00 | 0.06 | 0.06 | 81 | 1003.3 |
| 20260506145103 | 80 | 333 | 8.0 | 11.0 | 0.00 | 0.06 | 0.06 | 81 | 1003.4 |
| 20260506145007 | 80 | 328 | 4.0 | 8.0 | 0.00 | 0.06 | 0.06 | 81 | 1003.4 |
| 20260506144914 | 80 | 328 | 4.0 | 14.0 | 0.00 | 0.06 | 0.06 | 81 | 1003.4 |
| 20260506144903 | 80 | 331 | 4.0 | 14.0 | 0.00 | 0.06 | 0.06 | 81 | 1003.4 |
| 20260506144803 | 80 | 343 | 5.0 | 15.0 | 0.00 | 0.06 | 0.06 | 81 | 1003.4 |
| 20260506144615 | 80 | 342 | 3.0 | 15.0 | 0.00 | 0.06 | 0.06 | 81 | 1003.6 |
| 20260506144603 | 80 | 343 | 2.0 | 15.0 | 0.00 | 0.06 | 0.06 | 82 | 1003.3 |
| 20260506144505 | 80 | 345 | 4.0 | 15.0 | 0.00 | 0.06 | 0.06 | 82 | 1003.5 |
| 20260506144303 | 80 | 343 | 6.0 | 15.0 | 0.00 | 0.06 | 0.06 | 82 | 1003.4 |
| 20260506144203 | 80 | 341 | 3.0 | 11.0 | 0.00 | 0.06 | 0.06 | 82 | 1003.5 |
| 20260506144105 | 80 | 342 | 5.0 | 11.0 | 0.00 | 0.06 | 0.06 | 82 | 1003.6 |
| 20260506144006 | 80 | 343 | 4.0 | 11.0 | 0.00 | 0.06 | 0.06 | 82 | 1003.6 |
| 20260506143904 | 80 | 346 | 6.0 | 11.0 | 0.00 | 0.06 | 0.06 | 82 | 1003.7 |
| 20260506143804 | 80 | 342 | 5.0 | 11.0 | 0.00 | 0.06 | 0.06 | 82 | 1003.7 |
| 20260506143705 | 80 | 350 | 4.0 | 9.0 | 0.00 | 0.06 | 0.06 | 83 | 1003.6 |
| 20260506143604 | 80 | 351 | 4.0 | 9.0 | 0.00 | 0.06 | 0.06 | 83 | 1003.6 |
| 20260506143504 | 80 | 349 | 4.0 | 9.0 | 0.00 | 0.06 | 0.06 | 83 | 1003.6 |
| 20260506143404 | 79 | 343 | 5.0 | 9.0 | 0.00 | 0.06 | 0.06 | 83 | 1003.6 |
| 20260506143304 | 80 | 341 | 4.0 | 9.0 | 0.00 | 0.06 | 0.06 | 83 | 1003.7 |
| 20260506143215 | 79 | 341 | 2.0 | 9.0 | 0.00 | 0.06 | 0.06 | 84 | 1003.8 |
| 20260506143204 | 79 | 343 | 2.0 | 9.0 | 0.00 | 0.06 | 0.06 | 84 | 1003.8 |
| 20260506143104 | 79 | 340 | 4.0 | 9.0 | 0.00 | 0.06 | 0.06 | 84 | 1003.6 |
| 20260506142916 | 79 | 336 | 4.0 | 11.0 | 0.00 | 0.06 | 0.06 | 84 | 1003.7 |
| 20260506142805 | 79 | 340 | 4.0 | 11.0 | 0.00 | 0.06 | 0.06 | 84 | 1003.7 |
| 20260506142515 | 79 | 357 | 3.0 | 4.0 | 0.00 | 0.06 | 0.06 | 84 | 1003.9 |
| 20260506142505 | 79 | 356 | 3.0 | 4.0 | 0.00 | 0.06 | 0.06 | 84 | 1003.9 |
| 20260506142419 | 79 | 353 | 2.0 | 4.0 | 0.00 | 0.06 | 0.06 | 85 | 1003.8 |
| 20260506142405 | 79 | 352 | 2.0 | 4.0 | 0.00 | 0.06 | 0.06 | 85 | 1003.8 |
| 20260506142317 | 79 | 353 | 2.0 | 4.0 | 0.00 | 0.06 | 0.06 | 85 | 1003.8 |
| 20260506142004 | 79 | 350 | 2.0 | 7.0 | 0.00 | 0.06 | 0.06 | 85 | 1003.8 |
| 20260506141903 | 79 | 356 | 2.0 | 7.0 | 0.00 | 0.06 | 0.06 | 85 | 1003.9 |
| 20260506141804 | 79 | 351 | 2.0 | 7.0 | 0.00 | 0.06 | 0.06 | 85 | 1003.8 |
| 20260506141703 | 78 | 352 | 2.0 | 7.0 | 0.00 | 0.06 | 0.06 | 85 | 1003.9 |
| 20260506141604 | 78 | 351 | 4.0 | 7.0 | 0.00 | 0.06 | 0.06 | 85 | 1003.8 |
| 20260506141503 | 78 | 353 | 4.0 | 7.0 | 0.00 | 0.06 | 0.06 | 85 | 1003.8 |
| 20260506141403 | 78 | 352 | 3.0 | 7.0 | 0.00 | 0.06 | 0.06 | 85 | 1003.8 |
| 20260506141303 | 78 | 4 | 2.0 | 7.0 | 0.00 | 0.06 | 0.06 | 86 | 1003.8 |
| 20260506141217 | 78 | 3 | 2.0 | 8.0 | 0.00 | 0.06 | 0.06 | 86 | 1003.9 |
| 20260506141203 | 78 | 1 | 2.0 | 8.0 | 0.00 | 0.06 | 0.06 | 86 | 1003.9 |
| 20260506141104 | 78 | 360 | 3.0 | 8.0 | 0.00 | 0.06 | 0.06 | 86 | 1004.0 |
| 20260506140910 | 78 | 359 | 2.0 | 8.0 | 0.00 | 0.06 | 0.06 | 86 | 1003.9 |
| 20260506140805 | 78 | 352 | 3.0 | 8.0 | 0.00 | 0.06 | 0.06 | 86 | 1003.9 |
| 20260506140704 | 78 | 351 | 5.0 | 8.0 | 0.00 | 0.06 | 0.06 | 86 | 1003.9 |
| 20260506140605 | 78 | 350 | 2.0 | 8.0 | 0.00 | 0.06 | 0.06 | 86 | 1003.9 |
| 20260506140505 | 78 | 345 | 5.0 | 8.0 | 0.00 | 0.06 | 0.06 | 86 | 1004.0 |
| 20260506140404 | 78 | 342 | 5.0 | 8.0 | 0.00 | 0.06 | 0.06 | 86 | 1003.8 |
| 20260506140305 | 78 | 342 | 4.0 | 7.0 | 0.00 | 0.06 | 0.06 | 86 | 1003.9 |
| 20260506140218 | 78 | 341 | 3.0 | 7.0 | 0.00 | 0.06 | 0.06 | 86 | 1004.0 |
| 20260506140204 | 78 | 341 | 4.0 | 9.0 | 0.00 | 0.06 | 0.06 | 86 | 1004.0 |
| 20260506135905 | 78 | 347 | 2.0 | 9.0 | 0.00 | 0.06 | 0.06 | 86 | 1003.9 |
| 20260506135803 | 78 | 348 | 3.0 | 9.0 | 0.00 | 0.06 | 0.06 | 86 | 1004.0 |
| 20260506135703 | 77 | 348 | 7.0 | 9.0 | 0.00 | 0.06 | 0.06 | 86 | 1003.9 |
| 20260506135603 | 78 | 354 | 3.0 | 9.0 | 0.00 | 0.06 | 0.06 | 86 | 1004.0 |
| 20260506135504 | 78 | 356 | 4.0 | 9.0 | 0.00 | 0.06 | 0.06 | 86 | 1004.0 |
| 20260506135404 | 77 | 6 | 4.0 | 9.0 | 0.00 | 0.06 | 0.06 | 87 | 1003.9 |
| 20260506135306 | 77 | 2 | 4.0 | 9.0 | 0.00 | 0.06 | 0.06 | 86 | 1003.7 |
| 20260506135203 | 77 | 11 | 4.0 | 9.0 | 0.00 | 0.06 | 0.06 | 87 | 1003.9 |
| 20260506135104 | 77 | 10 | 4.0 | 9.0 | 0.00 | 0.06 | 0.06 | 87 | 1003.9 |
| 20260506135003 | 77 | 4 | 2.0 | 8.0 | 0.00 | 0.06 | 0.06 | 87 | 1003.8 |
| 20260506134903 | 77 | 2 | 4.0 | 8.0 | 0.00 | 0.06 | 0.06 | 87 | 1004.0 |
| 20260506134807 | 77 | 4 | 4.0 | 8.0 | 0.00 | 0.06 | 0.06 | 87 | 1003.7 |
| 20260506134703 | 77 | 1 | 3.0 | 7.0 | 0.00 | 0.06 | 0.06 | 88 | 1003.9 |
| 20260506134603 | 77 | 357 | 4.0 | 7.0 | 0.00 | 0.06 | 0.06 | 88 | 1003.9 |
| 20260506134405 | 77 | 1 | 4.0 | 7.0 | 0.00 | 0.06 | 0.06 | 89 | 1004.0 |
| 20260506134306 | 77 | 13 | 2.0 | 4.0 | 0.00 | 0.06 | 0.06 | 89 | 1004.2 |
| 20260506134204 | 77 | 22 | 2.0 | 4.0 | 0.00 | 0.06 | 0.06 | 90 | 1004.0 |
| 20260506134118 | 77 | 30 | 2.0 | 4.0 | 0.00 | 0.06 | 0.06 | 90 | 1004.0 |
| 20260506134105 | 77 | 34 | 2.0 | 4.0 | 0.00 | 0.06 | 0.06 | 90 | 1004.0 |
| 20260506134004 | 77 | 48 | 2.0 | 4.0 | 0.00 | 0.06 | 0.06 | 90 | 1004.1 |
| 20260506133814 | 76 | 39 | 2.0 | 4.0 | 0.00 | 0.06 | 0.06 | 90 | 1004.0 |
| 20260506133804 | 76 | 37 | 2.0 | 4.0 | 0.00 | 0.06 | 0.06 | 91 | 1003.9 |
| 20260506133705 | 76 | 39 | 2.0 | 4.0 | 0.00 | 0.06 | 0.06 | 91 | 1004.2 |
| 20260506133504 | 76 | 17 | 3.0 | 4.0 | 0.00 | 0.06 | 0.06 | 91 | 1003.9 |
| 20260506133405 | 76 | 16 | 2.0 | 4.0 | 0.00 | 0.06 | 0.06 | 91 | 1003.9 |
| 20260506133307 | 76 | 5 | 2.0 | 7.0 | 0.00 | 0.06 | 0.06 | 91 | 1003.9 |
| 20260506133205 | 76 | 352 | 2.0 | 7.0 | 0.00 | 0.06 | 0.06 | 92 | 1004.2 |
| 20260506133105 | 76 | 349 | 2.0 | 7.0 | 0.00 | 0.06 | 0.06 | 92 | 1003.9 |
| 20260506133018 | 75 | 355 | 2.0 | 7.0 | 0.00 | 0.06 | 0.06 | 92 | 1003.9 |
| 20260506133004 | 75 | 354 | 2.0 | 7.0 | 0.00 | 0.06 | 0.06 | 92 | 1004.1 |
| 20260506132904 | 75 | 344 | 3.0 | 7.0 | 0.00 | 0.06 | 0.06 | 92 | 1004.2 |
| 20260506132705 | 75 | 326 | 2.0 | 9.0 | 0.00 | 0.06 | 0.06 | 93 | 1004.0 |
| 20260506132605 | 75 | 325 | 2.0 | 9.0 | 0.00 | 0.06 | 0.06 | 93 | 1004.0 |
| 20260506132503 | 74 | 330 | 3.0 | 9.0 | 0.00 | 0.06 | 0.06 | 94 | 1004.2 |
| 20260506132405 | 74 | 342 | 2.0 | 9.0 | 0.00 | 0.06 | 0.06 | 94 | 1004.1 |
| 20260506132307 | 74 | 352 | 2.0 | 9.0 | 0.00 | 0.06 | 0.06 | 94 | 1004.1 |
| 20260506132203 | 74 | 24 | 1.0 | 6.0 | 0.00 | 0.06 | 0.06 | 94 | 1004.0 |
| 20260506132105 | 74 | 29 | 2.0 | 6.0 | 0.00 | 0.06 | 0.06 | 94 | 1004.0 |
| 20260506132004 | 74 | 28 | 2.0 | 6.0 | 0.00 | 0.06 | 0.06 | 95 | 1004.0 |
| 20260506131904 | 74 | 36 | 2.0 | 6.0 | 0.00 | 0.06 | 0.06 | 95 | 1004.1 |
| 20260506131803 | 74 | 33 | 1.0 | 6.0 | 0.00 | 0.06 | 0.06 | 95 | 1004.3 |
| 20260506131714 | 74 | 33 | 2.0 | 6.0 | 0.00 | 0.06 | 0.06 | 95 | 1004.3 |
| 20260506131705 | 74 | 31 | 2.0 | 6.0 | 0.00 | 0.06 | 0.06 | 95 | 1004.3 |
| 20260506131605 | 74 | 20 | 2.0 | 6.0 | 0.00 | 0.06 | 0.06 | 95 | 1004.3 |
| 20260506131404 | 74 | 17 | 3.0 | 6.0 | 0.00 | 0.06 | 0.06 | 96 | 1004.3 |
| 20260506131303 | 74 | 34 | 1.0 | 4.0 | 0.00 | 0.06 | 0.06 | 96 | 1004.1 |
| 20260506131203 | 74 | 31 | 2.0 | 6.0 | 0.00 | 0.06 | 0.06 | 96 | 1003.9 |
| 20260506131103 | 73 | 50 | 2.0 | 6.0 | 0.00 | 0.06 | 0.06 | 96 | 1004.3 |
| 20260506131015 | 73 | 47 | 1.0 | 6.0 | 0.00 | 0.06 | 0.06 | 96 | 1004.1 |
| 20260506131003 | 73 | 50 | 2.0 | 6.0 | 0.00 | 0.06 | 0.06 | 96 | 1004.3 |
| 20260506130903 | 73 | 59 | 2.0 | 6.0 | 0.00 | 0.06 | 0.06 | 96 | 1004.3 |
| 20260506130707 | 73 | 62 | 2.0 | 6.0 | 0.00 | 0.06 | 0.06 | 96 | 1004.5 |
| 20260506130603 | 73 | 50 | 2.0 | 6.0 | 0.00 | 0.06 | 0.06 | 97 | 1004.3 |
| 20260506130513 | 73 | 53 | 2.0 | 6.0 | 0.00 | 0.06 | 0.06 | 97 | 1004.2 |
| 20260506130503 | 73 | 51 | 2.0 | 6.0 | 0.00 | 0.06 | 0.06 | 97 | 1004.2 |
| 20260506130403 | 73 | 41 | 2.0 | 6.0 | 0.00 | 0.06 | 0.06 | 97 | 1004.2 |
| 20260506130205 | 73 | 20 | 2.0 | 4.0 | 0.00 | 0.06 | 0.06 | 97 | 1004.3 |
| 20260506130103 | 73 | 22 | 2.0 | 6.0 | 0.00 | 0.06 | 0.06 | 97 | 1004.2 |
| 20260506130004 | 73 | 8 | 0.0 | 6.0 | 0.00 | 0.06 | 0.06 | 97 | 1004.1 |
| 20260506125905 | 73 | 359 | 1.0 | 6.0 | 0.00 | 0.06 | 0.06 | 97 | 1004.1 |
| 20260506125804 | 73 | 7 | 0.0 | 6.0 | 0.00 | 0.06 | 0.06 | 97 | 1004.3 |
| 20260506125703 | 72 | 357 | 2.0 | 6.0 | 0.00 | 0.06 | 0.06 | 97 | 1004.1 |
| 20260506125603 | 72 | 333 | 2.0 | 6.0 | 0.00 | 0.06 | 0.06 | 97 | 1004.1 |
| 20260506125503 | 72 | 347 | 2.0 | 4.0 | 0.00 | 0.06 | 0.06 | 97 | 1004.1 |
| 20260506125405 | 72 | 5 | 2.0 | 6.0 | 0.00 | 0.06 | 0.06 | 97 | 1004.2 |
| 20260506125305 | 72 | 3 | 2.0 | 6.0 | 0.00 | 0.06 | 0.06 | 98 | 1004.4 |
| 20260506125204 | 72 | 4 | 2.0 | 6.0 | 0.00 | 0.06 | 0.06 | 98 | 1004.3 |
| 20260506125103 | 72 | 20 | 2.0 | 6.0 | 0.00 | 0.06 | 0.06 | 98 | 1004.3 |
| 20260506125004 | 72 | 14 | 1.0 | 6.0 | 0.00 | 0.06 | 0.06 | 98 | 1004.3 |
| 20260506124906 | 72 | 349 | 2.0 | 6.0 | 0.00 | 0.06 | 0.06 | 98 | 1004.5 |
| 20260506124803 | 72 | 350 | 1.0 | 6.0 | 0.00 | 0.06 | 0.06 | 98 | 1004.7 |
| 20260506124703 | 72 | 8 | 2.0 | 6.0 | 0.00 | 0.06 | 0.06 | 98 | 1004.3 |
| 20260506124604 | 72 | 36 | 1.0 | 6.0 | 0.00 | 0.06 | 0.06 | 98 | 1004.2 |
| 20260506124504 | 72 | 54 | 3.0 | 6.0 | 0.00 | 0.06 | 0.06 | 98 | 1004.4 |
| 20260506124404 | 72 | 69 | 2.0 | 6.0 | 0.00 | 0.06 | 0.06 | 98 | 1004.3 |
| 20260506124307 | 72 | 62 | 2.0 | 8.0 | 0.00 | 0.06 | 0.06 | 98 | 1004.4 |
| 20260506124204 | 72 | 52 | 2.0 | 8.0 | 0.00 | 0.06 | 0.06 | 98 | 1004.4 |
| 20260506124114 | 72 | 43 | 3.0 | 8.0 | 0.00 | 0.06 | 0.06 | 98 | 1004.4 |
| 20260506124103 | 72 | 40 | 3.0 | 8.0 | 0.00 | 0.06 | 0.06 | 98 | 1004.4 |
| 20260506124004 | 72 | 33 | 2.0 | 8.0 | 0.00 | 0.06 | 0.06 | 98 | 1004.5 |
| 20260506123916 | 72 | 34 | 2.0 | 8.0 | 0.00 | 0.06 | 0.06 | 98 | 1004.5 |
| 20260506123805 | 72 | 40 | 2.0 | 6.0 | 0.00 | 0.06 | 0.06 | 98 | 1004.5 |
| 20260506123718 | 72 | 36 | 4.0 | 6.0 | 0.00 | 0.06 | 0.06 | 98 | 1004.3 |
| 20260506123604 | 72 | 40 | 2.0 | 6.0 | 0.00 | 0.06 | 0.06 | 98 | 1004.5 |
| 20260506123516 | 72 | 39 | 3.0 | 6.0 | 0.00 | 0.06 | 0.06 | 98 | 1004.6 |
| 20260506123419 | 72 | 41 | 2.0 | 6.0 | 0.00 | 0.06 | 0.06 | 98 | 1004.4 |
| 20260506123403 | 72 | 40 | 1.0 | 6.0 | 0.00 | 0.06 | 0.06 | 98 | 1004.7 |
| 20260506123104 | 71 | 45 | 2.0 | 6.0 | 0.00 | 0.06 | 0.06 | 99 | 1004.3 |
| 20260506123009 | 71 | 58 | 2.0 | 4.0 | 0.00 | 0.06 | 0.06 | 99 | 1004.2 |
| 20260506122917 | 71 | 58 | 2.0 | 4.0 | 0.00 | 0.06 | 0.06 | 99 | 1004.4 |
| 20260506122903 | 71 | 59 | 2.0 | 4.0 | 0.00 | 0.06 | 0.06 | 99 | 1004.4 |
| 20260506122816 | 71 | 48 | 1.0 | 6.0 | 0.00 | 0.06 | 0.06 | 99 | 1004.4 |
| 20260506122804 | 71 | 44 | 1.0 | 6.0 | 0.00 | 0.06 | 0.06 | 99 | 1004.4 |
| 20260506122505 | 71 | 32 | 2.0 | 6.0 | 0.00 | 0.06 | 0.06 | 99 | 1004.5 |
| 20260506122404 | 71 | 35 | 2.0 | 6.0 | 0.00 | 0.06 | 0.06 | 99 | 1004.5 |
| 20260506122306 | 71 | 53 | 3.0 | 6.0 | 0.00 | 0.06 | 0.06 | 99 | 1004.5 |
| 20260506122208 | 71 | 67 | 2.0 | 6.0 | 0.00 | 0.06 | 0.06 | 99 | 1004.4 |
| 20260506122103 | 71 | 70 | 2.0 | 6.0 | 0.00 | 0.06 | 0.06 | 99 | 1004.6 |
| 20260506122004 | 71 | 76 | 2.0 | 6.0 | 0.00 | 0.06 | 0.06 | 99 | 1004.4 |
| 20260506121903 | 70 | 75 | 3.0 | 6.0 | 0.00 | 0.06 | 0.06 | 99 | 1004.4 |
| 20260506121803 | 70 | 67 | 3.0 | 6.0 | 0.00 | 0.06 | 0.06 | 99 | 1004.5 |
| 20260506121703 | 71 | 58 | 2.0 | 6.0 | 0.00 | 0.06 | 0.06 | 99 | 1004.6 |
| 20260506121603 | 71 | 60 | 2.0 | 6.0 | 0.00 | 0.06 | 0.06 | 99 | 1004.6 |
| 20260506121505 | 71 | 61 | 2.0 | 6.0 | 0.00 | 0.06 | 0.06 | 99 | 1004.6 |
| 20260506121405 | 70 | 56 | 2.0 | 4.0 | 0.00 | 0.06 | 0.06 | 99 | 1004.6 |
| 20260506121303 | 70 | 50 | 2.0 | 4.0 | 0.00 | 0.06 | 0.06 | 99 | 1004.5 |
| 20260506121203 | 70 | 64 | 2.0 | 4.0 | 0.00 | 0.06 | 0.06 | 99 | 1004.4 |
| 20260506121103 | 71 | 44 | 1.0 | 6.0 | 0.00 | 0.06 | 0.06 | 99 | 1004.7 |
| 20260506121015 | 70 | 32 | 1.0 | 6.0 | 0.00 | 0.06 | 0.06 | 99 | 1004.5 |
| 20260506121005 | 70 | 26 | 2.0 | 6.0 | 0.00 | 0.06 | 0.06 | 99 | 1004.6 |
| 20260506120705 | 70 | 23 | 2.0 | 6.0 | 0.00 | 0.06 | 0.06 | 99 | 1004.4 |
| 20260506120603 | 70 | 77 | 1.0 | 6.0 | 0.00 | 0.06 | 0.06 | 99 | 1004.6 |
| 20260506120513 | 70 | 89 | 2.0 | 6.0 | 0.00 | 0.06 | 0.06 | 99 | 1004.4 |
| 20260506120503 | 70 | 87 | 2.0 | 6.0 | 0.00 | 0.06 | 0.06 | 99 | 1004.4 |
| 20260506120403 | 70 | 77 | 2.0 | 6.0 | 0.00 | 0.06 | 0.06 | 99 | 1004.6 |
| 20260506120315 | 70 | 54 | 2.0 | 6.0 | 0.00 | 0.06 | 0.06 | 99 | 1004.7 |
| 20260506120219 | 70 | 55 | 2.0 | 6.0 | 0.00 | 0.06 | 0.06 | 99 | 1004.4 |
| 20260506120205 | 70 | 60 | 1.0 | 6.0 | 0.00 | 0.06 | 0.06 | 99 | 1004.5 |
| 20260506115903 | 70 | 71 | 2.0 | 6.0 | 0.00 | 0.06 | 0.06 | 99 | 1004.5 |
| 20260506115804 | 70 | 84 | 2.0 | 6.0 | 0.00 | 0.06 | 0.06 | 99 | 1004.5 |
| 20260506115717 | 70 | 85 | 3.0 | 6.0 | 0.00 | 0.06 | 0.06 | 99 | 1004.5 |
| 20260506115703 | 70 | 90 | 3.0 | 6.0 | 0.00 | 0.06 | 0.06 | 99 | 1004.5 |
| 20260506115604 | 70 | 86 | 2.0 | 6.0 | 0.00 | 0.06 | 0.06 | 99 | 1004.5 |
| 20260506115407 | 70 | 65 | 2.0 | 7.0 | 0.00 | 0.06 | 0.06 | 99 | 1004.6 |
| 20260506115307 | 70 | 64 | 3.0 | 7.0 | 0.00 | 0.06 | 0.06 | 99 | 1004.4 |
| 20260506115204 | 70 | 72 | 2.0 | 7.0 | 0.00 | 0.06 | 0.06 | 99 | 1004.5 |
| 20260506115104 | 70 | 59 | 3.0 | 7.0 | 0.00 | 0.06 | 0.06 | 99 | 1004.3 |
| 20260506115003 | 70 | 64 | 3.0 | 7.0 | 0.00 | 0.06 | 0.06 | 99 | 1004.3 |
| 20260506114805 | 70 | 90 | 3.0 | 7.0 | 0.00 | 0.06 | 0.06 | 99 | 1004.5 |
| 20260506114705 | 70 | 79 | 2.0 | 6.0 | 0.00 | 0.06 | 0.06 | 99 | 1004.2 |
| 20260506114605 | 70 | 92 | 2.0 | 6.0 | 0.00 | 0.06 | 0.06 | 99 | 1004.4 |
| 20260506114503 | 70 | 89 | 3.0 | 6.0 | 0.00 | 0.06 | 0.06 | 99 | 1004.4 |
| 20260506114404 | 70 | 81 | 2.0 | 6.0 | 0.00 | 0.06 | 0.06 | 99 | 1004.4 |
| 20260506114204 | 70 | 81 | 2.0 | 8.0 | 0.00 | 0.06 | 0.06 | 99 | 1004.5 |
| 20260506114105 | 70 | 74 | 1.0 | 8.0 | 0.00 | 0.06 | 0.06 | 99 | 1004.3 |
| 20260506114004 | 69 | 71 | 2.0 | 8.0 | 0.00 | 0.06 | 0.06 | 99 | 1004.4 |
| 20260506113904 | 69 | 62 | 2.0 | 8.0 | 0.00 | 0.06 | 0.06 | 99 | 1004.3 |
| 20260506113815 | 69 | 54 | 3.0 | 8.0 | 0.00 | 0.06 | 0.06 | 99 | 1004.4 |
| 20260506113804 | 70 | 52 | 2.0 | 4.0 | 0.00 | 0.06 | 0.06 | 99 | 1004.5 |
| 20260506113708 | 70 | 51 | 2.0 | 4.0 | 0.00 | 0.06 | 0.06 | 99 | 1004.4 |
| 20260506113503 | 70 | 50 | 0.0 | 4.0 | 0.00 | 0.06 | 0.06 | 99 | 1004.5 |
| 20260506113404 | 69 | 51 | 2.0 | 4.0 | 0.00 | 0.06 | 0.06 | 99 | 1004.3 |
| 20260506113305 | 69 | 43 | 2.0 | 4.0 | 0.00 | 0.06 | 0.06 | 99 | 1004.4 |
| 20260506113203 | 69 | 49 | 2.0 | 4.0 | 0.00 | 0.06 | 0.06 | 99 | 1004.6 |
| 20260506113104 | 69 | 43 | 1.0 | 4.0 | 0.00 | 0.06 | 0.06 | 99 | 1004.7 |
| 20260506113014 | 69 | 34 | 1.0 | 4.0 | 0.00 | 0.06 | 0.06 | 99 | 1004.6 |
| 20260506113004 | 69 | 36 | 0.0 | 4.0 | 0.00 | 0.06 | 0.06 | 99 | 1004.5 |
| 20260506112906 | 69 | 35 | 1.0 | 4.0 | 0.00 | 0.06 | 0.06 | 99 | 1004.6 |
| 20260506112705 | 69 | 21 | 1.0 | 4.0 | 0.00 | 0.06 | 0.06 | 99 | 1004.5 |
| 20260506112603 | 69 | 22 | 2.0 | 4.0 | 0.00 | 0.06 | 0.06 | 99 | 1004.5 |
| 20260506112403 | 69 | 36 | 2.0 | 4.0 | 0.00 | 0.06 | 0.06 | 99 | 1004.6 |
| 20260506112306 | 69 | 38 | 1.0 | 4.0 | 0.00 | 0.06 | 0.06 | 99 | 1004.5 |
| 20260506112205 | 69 | 39 | 2.0 | 4.0 | 0.00 | 0.06 | 0.06 | 99 | 1004.6 |
| 20260506112104 | 69 | 40 | 1.0 | 4.0 | 0.00 | 0.06 | 0.06 | 99 | 1004.6 |
| 20260506112015 | 69 | 45 | 2.0 | 4.0 | 0.00 | 0.06 | 0.06 | 99 | 1004.7 |
| 20260506111903 | 69 | 41 | 1.0 | 4.0 | 0.00 | 0.06 | 0.06 | 99 | 1004.7 |
| 20260506111705 | 69 | 43 | 2.0 | 4.0 | 0.00 | 0.06 | 0.06 | 99 | 1004.8 |
| 20260506111605 | 69 | 40 | 1.0 | 4.0 | 0.00 | 0.06 | 0.06 | 99 | 1004.7 |
| 20260506111503 | 69 | 33 | 1.0 | 4.0 | 0.00 | 0.06 | 0.06 | 99 | 1004.5 |
| 20260506111403 | 69 | 24 | 1.0 | 4.0 | 0.00 | 0.06 | 0.06 | 99 | 1004.7 |
| 20260506111303 | 69 | 22 | 1.0 | 4.0 | 0.00 | 0.06 | 0.06 | 99 | 1004.6 |
| 20260506111203 | 69 | 19 | 0.0 | 4.0 | 0.00 | 0.06 | 0.06 | 99 | 1005.0 |
| 20260506111117 | 69 | 31 | 0.0 | 4.0 | 0.00 | 0.06 | 0.06 | 99 | 1004.7 |
| 20260506111105 | 69 | 39 | 0.0 | 4.0 | 0.00 | 0.06 | 0.06 | 99 | 1004.7 |
| 20260506111004 | 69 | 52 | 1.0 | 4.0 | 0.00 | 0.06 | 0.06 | 99 | 1004.7 |
| 20260506110803 | 69 | 104 | 1.0 | 4.0 | 0.00 | 0.06 | 0.06 | 99 | 1004.7 |
| 20260506110705 | 69 | 104 | 1.0 | 4.0 | 0.00 | 0.06 | 0.06 | 99 | 1004.6 |
| 20260506110605 | 69 | 98 | 0.0 | 4.0 | 0.00 | 0.06 | 0.06 | 99 | 1004.7 |
| 20260506110514 | 69 | 102 | 0.0 | 4.0 | 0.00 | 0.06 | 0.06 | 99 | 1004.9 |
| 20260506110507 | 69 | 103 | 0.0 | 4.0 | 0.00 | 0.06 | 0.06 | 99 | 1004.9 |
| 20260506110405 | 69 | 103 | 0.0 | 4.0 | 0.00 | 0.06 | 0.06 | 99 | 1004.7 |
| 20260506110105 | 69 | 86 | 0.0 | 4.0 | 0.00 | 0.06 | 0.06 | 99 | 1004.7 |
| 20260506110004 | 69 | 76 | 0.0 | 4.0 | 0.00 | 0.06 | 0.06 | 99 | 1004.9 |
| 20260506105904 | 69 | 61 | 1.0 | 4.0 | 0.00 | 0.06 | 0.06 | 99 | 1004.9 |
| 20260506105805 | 69 | 53 | 1.0 | 4.0 | 0.00 | 0.06 | 0.06 | 99 | 1004.8 |
| 20260506105704 | 69 | 43 | 2.0 | 4.0 | 0.00 | 0.06 | 0.06 | 99 | 1004.8 |
| 20260506105603 | 69 | 29 | 2.0 | 4.0 | 0.00 | 0.06 | 0.06 | 99 | 1004.9 |
| 20260506105503 | 69 | 28 | 1.0 | 4.0 | 0.00 | 0.06 | 0.06 | 99 | 1004.6 |
| 20260506105404 | 69 | 38 | 2.0 | 4.0 | 0.00 | 0.06 | 0.06 | 99 | 1004.8 |
| 20260506105205 | 69 | 56 | 2.0 | 4.0 | 0.00 | 0.06 | 0.06 | 99 | 1004.7 |
| 20260506105105 | 69 | 65 | 2.0 | 4.0 | 0.00 | 0.06 | 0.06 | 99 | 1004.9 |
| 20260506105005 | 69 | 69 | 1.0 | 4.0 | 0.00 | 0.06 | 0.06 | 99 | 1004.9 |
| 20260506104803 | 69 | 87 | 2.0 | 4.0 | 0.00 | 0.06 | 0.06 | 99 | 1004.9 |
| 20260506104703 | 69 | 84 | 2.0 | 4.0 | 0.00 | 0.06 | 0.06 | 99 | 1004.8 |
| 20260506104605 | 69 | 89 | 2.0 | 4.0 | 0.00 | 0.06 | 0.06 | 99 | 1004.7 |
| 20260506104407 | 69 | 94 | 1.0 | 4.0 | 0.00 | 0.06 | 0.06 | 99 | 1004.6 |
| 20260506104303 | 69 | 82 | 1.0 | 4.0 | 0.00 | 0.06 | 0.06 | 99 | 1004.8 |
| 20260506104216 | 69 | 71 | 0.0 | 4.0 | 0.00 | 0.06 | 0.06 | 99 | 1005.0 |
| 20260506104204 | 69 | 74 | 2.0 | 4.0 | 0.00 | 0.06 | 0.06 | 99 | 1004.5 |
| 20260506104103 | 69 | 71 | 1.0 | 2.0 | 0.00 | 0.06 | 0.06 | 99 | 1004.6 |
| 20260506103905 | 69 | 61 | 2.0 | 4.0 | 0.00 | 0.06 | 0.06 | 99 | 1004.8 |
| 20260506103804 | 69 | 62 | 2.0 | 4.0 | 0.00 | 0.06 | 0.06 | 99 | 1004.8 |
| 20260506103704 | 69 | 70 | 1.0 | 4.0 | 0.00 | 0.06 | 0.06 | 99 | 1004.8 |
| 20260506103603 | 69 | 72 | 0.0 | 4.0 | 0.00 | 0.06 | 0.06 | 99 | 1005.0 |
| 20260506103504 | 69 | 71 | 2.0 | 4.0 | 0.00 | 0.06 | 0.06 | 99 | 1004.8 |
| 20260506103415 | 69 | 70 | 1.0 | 4.0 | 0.00 | 0.06 | 0.06 | 99 | 1005.0 |
| 20260506103404 | 69 | 75 | 0.0 | 4.0 | 0.00 | 0.06 | 0.06 | 99 | 1005.0 |
| 20260506103304 | 69 | 83 | 1.0 | 4.0 | 0.00 | 0.06 | 0.06 | 99 | 1005.0 |
| 20260506103103 | 69 | 85 | 1.0 | 4.0 | 0.00 | 0.06 | 0.06 | 99 | 1005.0 |
| 20260506103004 | 69 | 85 | 1.0 | 4.0 | 0.00 | 0.06 | 0.06 | 99 | 1004.9 |
| 20260506102804 | 69 | 63 | 2.0 | 4.0 | 0.00 | 0.06 | 0.06 | 99 | 1004.7 |
| 20260506102703 | 69 | 58 | 1.0 | 4.0 | 0.00 | 0.06 | 0.06 | 99 | 1004.8 |
| 20260506102614 | 69 | 51 | 1.0 | 4.0 | 0.00 | 0.06 | 0.06 | 99 | 1004.8 |
| 20260506102603 | 69 | 47 | 1.0 | 4.0 | 0.00 | 0.06 | 0.06 | 99 | 1004.7 |
| 20260506102504 | 69 | 45 | 1.0 | 4.0 | 0.00 | 0.06 | 0.06 | 99 | 1004.7 |
| 20260506102416 | 69 | 57 | 1.0 | 2.0 | 0.00 | 0.06 | 0.06 | 99 | 1004.9 |
| 20260506102305 | 69 | 64 | 1.0 | 2.0 | 0.00 | 0.06 | 0.06 | 99 | 1005.0 |
| 20260506102004 | 69 | 98 | 1.0 | 4.0 | 0.00 | 0.06 | 0.06 | 99 | 1005.0 |
| 20260506101903 | 69 | 91 | 0.0 | 4.0 | 0.00 | 0.06 | 0.06 | 99 | 1004.9 |
| 20260506101803 | 69 | 95 | 2.0 | 4.0 | 0.00 | 0.06 | 0.06 | 99 | 1005.0 |
| 20260506101703 | 69 | 85 | 2.0 | 4.0 | 0.00 | 0.06 | 0.06 | 99 | 1004.9 |
| 20260506101603 | 69 | 82 | 1.0 | 4.0 | 0.00 | 0.06 | 0.06 | 99 | 1005.0 |
| 20260506101509 | 69 | 76 | 2.0 | 4.0 | 0.00 | 0.06 | 0.06 | 99 | 1004.6 |
| 20260506101404 | 69 | 73 | 1.0 | 4.0 | 0.00 | 0.06 | 0.06 | 99 | 1005.1 |
| 20260506101304 | 69 | 68 | 1.0 | 4.0 | 0.00 | 0.06 | 0.06 | 99 | 1004.8 |
| 20260506101207 | 69 | 72 | 1.0 | 4.0 | 0.00 | 0.06 | 0.06 | 99 | 1004.9 |
| 20260506101105 | 69 | 75 | 1.0 | 4.0 | 0.00 | 0.06 | 0.06 | 99 | 1005.0 |
| 20260506101005 | 69 | 75 | 1.0 | 4.0 | 0.00 | 0.06 | 0.06 | 99 | 1004.8 |
| 20260506100915 | 69 | 75 | 1.0 | 4.0 | 0.00 | 0.06 | 0.06 | 99 | 1005.0 |
| 20260506100905 | 69 | 77 | 1.0 | 4.0 | 0.00 | 0.06 | 0.06 | 99 | 1005.0 |
| 20260506100807 | 69 | 79 | 2.0 | 4.0 | 0.00 | 0.06 | 0.06 | 99 | 1004.7 |
| 20260506100603 | 69 | 65 | 1.0 | 4.0 | 0.00 | 0.06 | 0.06 | 99 | 1004.9 |
| 20260506100504 | 69 | 69 | 1.0 | 4.0 | 0.00 | 0.06 | 0.06 | 99 | 1005.0 |
| 20260506100403 | 69 | 61 | 1.0 | 4.0 | 0.00 | 0.06 | 0.06 | 99 | 1005.0 |
| 20260506100304 | 69 | 60 | 2.0 | 4.0 | 0.00 | 0.06 | 0.06 | 99 | 1004.8 |
| 20260506100215 | 69 | 61 | 0.0 | 4.0 | 0.00 | 0.06 | 0.06 | 99 | 1004.9 |
| 20260506100204 | 69 | 62 | 2.0 | 4.0 | 0.00 | 0.06 | 0.06 | 99 | 1004.8 |
| 20260506100104 | 69 | 66 | 0.0 | 4.0 | 0.00 | 0.06 | 0.06 | 99 | 1004.8 |
| 20260506100018 | 69 | 71 | 1.0 | 4.0 | 0.00 | 0.06 | 0.06 | 99 | 1004.9 |
| 20260506095903 | 69 | 76 | 2.0 | 4.0 | 0.00 | 0.06 | 0.06 | 99 | 1004.8 |
| 20260506095815 | 69 | 77 | 0.0 | 4.0 | 0.00 | 0.06 | 0.06 | 99 | 1004.8 |
| 20260506095504 | 69 | 58 | 1.0 | 4.0 | 0.00 | 0.06 | 0.06 | 99 | 1004.9 |
| 20260506095414 | 69 | 68 | 1.0 | 4.0 | 0.00 | 0.06 | 0.06 | 99 | 1004.7 |
| 20260506095403 | 69 | 73 | 1.0 | 4.0 | 0.00 | 0.06 | 0.06 | 99 | 1004.9 |
| 20260506095306 | 69 | 84 | 1.0 | 4.0 | 0.00 | 0.06 | 0.06 | 99 | 1004.8 |
| 20260506095105 | 69 | 90 | 1.0 | 4.0 | 0.00 | 0.06 | 0.06 | 99 | 1005.0 |
| 20260506095005 | 69 | 90 | 1.0 | 4.0 | 0.00 | 0.06 | 0.06 | 99 | 1005.0 |
| 20260506094903 | 69 | 78 | 1.0 | 4.0 | 0.00 | 0.06 | 0.06 | 99 | 1004.9 |
| 20260506094805 | 69 | 71 | 2.0 | 4.0 | 0.00 | 0.06 | 0.06 | 99 | 1004.8 |
| 20260506094703 | 69 | 66 | 0.0 | 4.0 | 0.00 | 0.06 | 0.06 | 99 | 1005.0 |
| 20260506094603 | 69 | 68 | 1.0 | 4.0 | 0.00 | 0.06 | 0.06 | 99 | 1004.9 |
| 20260506094404 | 69 | 83 | 1.0 | 4.0 | 0.00 | 0.06 | 0.06 | 98 | 1005.0 |
| 20260506094304 | 69 | 79 | 1.0 | 4.0 | 0.00 | 0.06 | 0.06 | 98 | 1004.7 |
| 20260506094217 | 69 | 82 | 1.0 | 4.0 | 0.00 | 0.06 | 0.06 | 99 | 1005.1 |
| 20260506094203 | 69 | 84 | 1.0 | 4.0 | 0.00 | 0.06 | 0.06 | 98 | 1004.9 |
| 20260506094116 | 69 | 85 | 1.0 | 4.0 | 0.00 | 0.06 | 0.06 | 98 | 1004.9 |
| 20260506094103 | 69 | 83 | 1.0 | 4.0 | 0.00 | 0.06 | 0.06 | 98 | 1004.9 |
| 20260506093805 | 69 | 66 | 1.0 | 4.0 | 0.00 | 0.06 | 0.06 | 98 | 1004.8 |
| 20260506093703 | 69 | 61 | 0.0 | 4.0 | 0.00 | 0.06 | 0.06 | 98 | 1004.9 |
| 20260506093603 | 69 | 61 | 0.0 | 4.0 | 0.00 | 0.06 | 0.06 | 98 | 1005.0 |
| 20260506093503 | 69 | 69 | 1.0 | 4.0 | 0.00 | 0.06 | 0.06 | 98 | 1004.9 |
| 20260506093416 | 69 | 72 | 1.0 | 4.0 | 0.00 | 0.06 | 0.06 | 98 | 1004.9 |
| 20260506093404 | 69 | 68 | 0.0 | 4.0 | 0.00 | 0.06 | 0.06 | 98 | 1005.0 |
| 20260506093303 | 69 | 68 | 2.0 | 4.0 | 0.00 | 0.06 | 0.06 | 98 | 1004.9 |
| 20260506093103 | 69 | 79 | 1.0 | 4.0 | 0.00 | 0.06 | 0.06 | 98 | 1004.8 |
| 20260506093004 | 69 | 76 | 2.0 | 6.0 | 0.00 | 0.06 | 0.06 | 98 | 1004.7 |
| 20260506092914 | 69 | 77 | 2.0 | 6.0 | 0.00 | 0.06 | 0.06 | 98 | 1004.9 |
| 20260506092904 | 69 | 80 | 2.0 | 6.0 | 0.00 | 0.06 | 0.06 | 98 | 1004.9 |
| 20260506092812 | 69 | 82 | 2.0 | 6.0 | 0.00 | 0.06 | 0.06 | 98 | 1004.7 |
| 20260506092803 | 69 | 81 | 2.0 | 6.0 | 0.00 | 0.06 | 0.06 | 98 | 1004.7 |
| 20260506092503 | 69 | 81 | 2.0 | 6.0 | 0.00 | 0.06 | 0.06 | 98 | 1005.0 |
| 20260506092403 | 69 | 75 | 2.0 | 4.0 | 0.00 | 0.06 | 0.06 | 98 | 1004.8 |
| 20260506092305 | 69 | 77 | 1.0 | 4.0 | 0.00 | 0.06 | 0.06 | 98 | 1004.9 |
| 20260506092203 | 69 | 74 | 2.0 | 4.0 | 0.00 | 0.06 | 0.06 | 98 | 1005.0 |
| 20260506092104 | 69 | 70 | 1.0 | 4.0 | 0.00 | 0.06 | 0.06 | 98 | 1005.2 |
| 20260506092004 | 69 | 75 | 2.0 | 4.0 | 0.00 | 0.06 | 0.06 | 98 | 1005.0 |
| 20260506091905 | 69 | 84 | 2.0 | 4.0 | 0.00 | 0.06 | 0.06 | 98 | 1005.0 |
| 20260506091804 | 69 | 89 | 1.0 | 4.0 | 0.00 | 0.06 | 0.06 | 98 | 1004.7 |
| 20260506091717 | 69 | 90 | 1.0 | 4.0 | 0.00 | 0.06 | 0.06 | 98 | 1005.2 |
| 20260506091604 | 69 | 87 | 1.0 | 4.0 | 0.00 | 0.06 | 0.06 | 98 | 1004.9 |
| 20260506091403 | 69 | 75 | 2.0 | 4.0 | 0.00 | 0.06 | 0.06 | 98 | 1005.1 |
| 20260506091316 | 69 | 70 | 2.0 | 4.0 | 0.00 | 0.06 | 0.06 | 98 | 1005.0 |
| 20260506091304 | 69 | 68 | 2.0 | 4.0 | 0.00 | 0.06 | 0.06 | 98 | 1005.0 |
| 20260506091205 | 69 | 65 | 2.0 | 4.0 | 0.00 | 0.06 | 0.06 | 98 | 1005.0 |
| 20260506091004 | 69 | 63 | 1.0 | 2.0 | 0.00 | 0.06 | 0.06 | 98 | 1004.9 |
| 20260506090905 | 69 | 56 | 1.0 | 4.0 | 0.00 | 0.06 | 0.06 | 98 | 1005.1 |
| 20260506090804 | 69 | 47 | 0.0 | 4.0 | 0.00 | 0.06 | 0.06 | 98 | 1004.9 |
| 20260506090707 | 69 | 49 | 1.0 | 4.0 | 0.00 | 0.06 | 0.06 | 98 | 1005.2 |
| 20260506090604 | 69 | 57 | 1.0 | 4.0 | 0.00 | 0.06 | 0.06 | 98 | 1005.2 |
| 20260506090404 | 69 | 70 | 1.0 | 4.0 | 0.00 | 0.06 | 0.06 | 98 | 1005.1 |
| 20260506090304 | 69 | 75 | 2.0 | 4.0 | 0.00 | 0.06 | 0.06 | 98 | 1005.1 |
| 20260506090203 | 69 | 77 | 3.0 | 4.0 | 0.00 | 0.06 | 0.06 | 98 | 1005.0 |
| 20260506090103 | 69 | 70 | 2.0 | 4.0 | 0.00 | 0.06 | 0.06 | 98 | 1004.8 |
| 20260506090004 | 69 | 62 | 1.0 | 4.0 | 0.00 | 0.06 | 0.06 | 98 | 1005.0 |
| 20260506085904 | 69 | 53 | 2.0 | 6.0 | 0.00 | 0.06 | 0.06 | 98 | 1005.0 |
| 20260506085807 | 69 | 45 | 1.0 | 6.0 | 0.00 | 0.06 | 0.06 | 98 | 1005.0 |
| 20260506085705 | 69 | 44 | 2.0 | 6.0 | 0.00 | 0.06 | 0.06 | 98 | 1004.9 |
| 20260506085603 | 69 | 44 | 1.0 | 6.0 | 0.00 | 0.06 | 0.06 | 98 | 1005.1 |
| 20260506085503 | 69 | 48 | 1.0 | 6.0 | 0.00 | 0.06 | 0.06 | 98 | 1005.1 |
| 20260506085415 | 69 | 53 | 3.0 | 6.0 | 0.00 | 0.06 | 0.06 | 98 | 1004.9 |
| 20260506085403 | 69 | 55 | 2.0 | 4.0 | 0.00 | 0.06 | 0.06 | 98 | 1004.9 |
| 20260506085305 | 69 | 67 | 2.0 | 4.0 | 0.00 | 0.06 | 0.06 | 98 | 1005.1 |
| 20260506085103 | 69 | 73 | 2.0 | 4.0 | 0.00 | 0.06 | 0.06 | 98 | 1005.0 |
| 20260506085004 | 69 | 94 | 1.0 | 6.0 | 0.00 | 0.06 | 0.06 | 98 | 1005.2 |
| 20260506084905 | 69 | 92 | 2.0 | 6.0 | 0.00 | 0.06 | 0.06 | 98 | 1004.9 |
| 20260506084805 | 69 | 79 | 1.0 | 6.0 | 0.00 | 0.06 | 0.06 | 98 | 1004.9 |
| 20260506084703 | 69 | 73 | 1.0 | 6.0 | 0.00 | 0.06 | 0.06 | 98 | 1005.2 |
| 20260506084603 | 69 | 84 | 3.0 | 6.0 | 0.00 | 0.06 | 0.06 | 98 | 1005.1 |
| 20260506084503 | 69 | 71 | 2.0 | 4.0 | 0.00 | 0.06 | 0.06 | 98 | 1005.1 |
| 20260506084403 | 69 | 69 | 2.0 | 6.0 | 0.00 | 0.06 | 0.06 | 98 | 1005.1 |
| 20260506084305 | 69 | 72 | 1.0 | 6.0 | 0.00 | 0.06 | 0.06 | 98 | 1005.1 |
| 20260506084105 | 69 | 62 | 1.0 | 7.0 | 0.00 | 0.06 | 0.06 | 98 | 1005.2 |
| 20260506084003 | 69 | 53 | 1.0 | 7.0 | 0.00 | 0.06 | 0.06 | 98 | 1005.2 |
| 20260506083905 | 69 | 49 | 2.0 | 7.0 | 0.00 | 0.06 | 0.06 | 98 | 1005.2 |
| 20260506083804 | 69 | 50 | 2.0 | 7.0 | 0.00 | 0.06 | 0.06 | 98 | 1004.9 |
| 20260506083703 | 69 | 47 | 2.0 | 7.0 | 0.00 | 0.06 | 0.06 | 98 | 1005.1 |
| 20260506083605 | 69 | 51 | 2.0 | 4.0 | 0.00 | 0.06 | 0.06 | 98 | 1005.3 |
| 20260506083503 | 69 | 57 | 2.0 | 4.0 | 0.00 | 0.06 | 0.06 | 98 | 1005.1 |
| 20260506083417 | 69 | 58 | 2.0 | 4.0 | 0.00 | 0.06 | 0.06 | 98 | 1004.9 |
| 20260506083403 | 69 | 59 | 2.0 | 4.0 | 0.00 | 0.06 | 0.06 | 98 | 1005.2 |
| 20260506083303 | 69 | 58 | 2.0 | 4.0 | 0.00 | 0.06 | 0.06 | 98 | 1005.1 |
| 20260506083117 | 69 | 56 | 2.0 | 6.0 | 0.00 | 0.06 | 0.06 | 98 | 1005.1 |
| 20260506083103 | 69 | 55 | 2.0 | 6.0 | 0.00 | 0.06 | 0.06 | 98 | 1005.1 |
| 20260506083003 | 69 | 73 | 2.0 | 6.0 | 0.00 | 0.06 | 0.06 | 98 | 1005.1 |
| 20260506082803 | 69 | 81 | 2.0 | 6.0 | 0.00 | 0.06 | 0.06 | 98 | 1005.0 |
| 20260506082704 | 69 | 78 | 2.0 | 6.0 | 0.00 | 0.06 | 0.06 | 98 | 1005.1 |
| 20260506082603 | 69 | 84 | 2.0 | 6.0 | 0.00 | 0.06 | 0.06 | 98 | 1005.0 |
| 20260506082503 | 69 | 67 | 2.0 | 6.0 | 0.00 | 0.06 | 0.06 | 98 | 1005.2 |
| 20260506082417 | 69 | 67 | 2.0 | 6.0 | 0.00 | 0.06 | 0.06 | 98 | 1004.8 |
| 20260506082403 | 69 | 68 | 2.0 | 6.0 | 0.00 | 0.06 | 0.06 | 98 | 1004.8 |
| 20260506082305 | 69 | 64 | 2.0 | 6.0 | 0.00 | 0.06 | 0.06 | 98 | 1005.1 |
| 20260506082104 | 69 | 66 | 1.0 | 6.0 | 0.00 | 0.06 | 0.06 | 98 | 1005.2 |
| 20260506082004 | 69 | 64 | 1.0 | 6.0 | 0.00 | 0.06 | 0.06 | 98 | 1005.2 |
| 20260506081904 | 69 | 57 | 1.0 | 6.0 | 0.00 | 0.06 | 0.06 | 98 | 1005.2 |
| 20260506081814 | 69 | 52 | 2.0 | 6.0 | 0.00 | 0.06 | 0.06 | 98 | 1005.2 |
| 20260506081804 | 69 | 51 | 2.0 | 6.0 | 0.00 | 0.06 | 0.06 | 98 | 1005.2 |
| 20260506081705 | 69 | 48 | 2.0 | 6.0 | 0.00 | 0.06 | 0.06 | 98 | 1005.0 |
| 20260506081505 | 69 | 51 | 2.0 | 6.0 | 0.00 | 0.06 | 0.06 | 98 | 1005.1 |
| 20260506081404 | 69 | 58 | 1.0 | 6.0 | 0.00 | 0.06 | 0.06 | 98 | 1005.0 |
| 20260506081304 | 69 | 63 | 2.0 | 6.0 | 0.00 | 0.06 | 0.06 | 98 | 1005.1 |
| 20260506081204 | 69 | 68 | 2.0 | 6.0 | 0.00 | 0.06 | 0.06 | 98 | 1005.1 |
| 20260506081104 | 69 | 72 | 2.0 | 6.0 | 0.00 | 0.06 | 0.06 | 98 | 1005.3 |
| 20260506081006 | 69 | 72 | 2.0 | 4.0 | 0.00 | 0.06 | 0.06 | 98 | 1005.4 |
| 20260506080705 | 69 | 82 | 2.0 | 4.0 | 0.00 | 0.06 | 0.06 | 98 | 1005.4 |
| 20260506080604 | 69 | 75 | 2.0 | 4.0 | 0.00 | 0.06 | 0.06 | 98 | 1005.3 |
| 20260506080505 | 69 | 74 | 2.0 | 4.0 | 0.00 | 0.06 | 0.06 | 98 | 1005.3 |
| 20260506080404 | 69 | 83 | 1.0 | 4.0 | 0.00 | 0.06 | 0.06 | 98 | 1005.4 |
| 20260506080303 | 69 | 82 | 1.0 | 4.0 | 0.00 | 0.06 | 0.06 | 98 | 1005.5 |
| 20260506080204 | 69 | 80 | 2.0 | 4.0 | 0.00 | 0.06 | 0.06 | 98 | 1005.2 |
| 20260506080104 | 69 | 88 | 2.0 | 4.0 | 0.00 | 0.06 | 0.06 | 98 | 1005.6 |
| 20260506073513 | 69 | 63 | 2.0 | 4.0 | 0.00 | 0.06 | 0.06 | 98 | 1005.8 |
| 20260506073316 | 69 | 76 | 2.0 | 4.0 | 0.00 | 0.06 | 0.06 | 98 | 1006.0 |
| 20260506073205 | 69 | 86 | 1.0 | 2.0 | 0.00 | 0.06 | 0.06 | 98 | 1005.7 |
| 20260506072915 | 69 | 65 | 2.0 | 4.0 | 0.00 | 0.06 | 0.06 | 97 | 1006.0 |
| 20260506072903 | 69 | 63 | 2.0 | 4.0 | 0.00 | 0.06 | 0.06 | 97 | 1006.0 |
| 20260506072805 | 69 | 60 | 1.0 | 4.0 | 0.00 | 0.06 | 0.06 | 97 | 1005.7 |
| 20260506072604 | 69 | 44 | 2.0 | 7.0 | 0.00 | 0.06 | 0.06 | 97 | 1005.8 |
| 20260506072504 | 69 | 46 | 1.0 | 7.0 | 0.00 | 0.06 | 0.06 | 97 | 1005.5 |
| 20260506072403 | 69 | 48 | 2.0 | 7.0 | 0.00 | 0.06 | 0.06 | 97 | 1005.8 |
| 20260506072305 | 69 | 32 | 2.0 | 7.0 | 0.00 | 0.06 | 0.06 | 97 | 1005.9 |
| 20260506072204 | 69 | 54 | 3.0 | 7.0 | 0.01 | 0.06 | 0.06 | 97 | 1005.8 |
| 20260506072107 | 69 | 84 | 1.0 | 4.0 | 0.01 | 0.06 | 0.06 | 97 | 1005.5 |
| 20260506072005 | 69 | 83 | 0.0 | 4.0 | 0.01 | 0.06 | 0.06 | 97 | 1005.7 |
| 20260506071905 | 69 | 81 | 2.0 | 4.0 | 0.01 | 0.06 | 0.06 | 97 | 1005.9 |
| 20260506071804 | 69 | 86 | 2.0 | 4.0 | 0.01 | 0.06 | 0.06 | 97 | 1005.9 |
| 20260506071704 | 69 | 84 | 2.0 | 4.0 | 0.01 | 0.06 | 0.06 | 97 | 1005.5 |
| 20260506071608 | 69 | 85 | 2.0 | 4.0 | 0.01 | 0.06 | 0.06 | 97 | 1005.6 |
| 20260506071504 | 69 | 90 | 1.0 | 4.0 | 0.04 | 0.06 | 0.06 | 97 | 1005.7 |
| 20260506071403 | 69 | 86 | 2.0 | 4.0 | 0.04 | 0.06 | 0.06 | 97 | 1005.6 |
| 20260506071304 | 69 | 81 | 1.0 | 4.0 | 0.04 | 0.06 | 0.06 | 97 | 1005.6 |
| 20260506071204 | 69 | 83 | 2.0 | 4.0 | 0.04 | 0.06 | 0.06 | 97 | 1005.9 |
| 20260506071105 | 69 | 83 | 1.0 | 4.0 | 0.04 | 0.06 | 0.06 | 97 | 1005.6 |
| 20260506071004 | 69 | 79 | 1.0 | 4.0 | 0.04 | 0.06 | 0.06 | 97 | 1005.8 |
| 20260506070905 | 69 | 84 | 2.0 | 6.0 | 0.04 | 0.06 | 0.06 | 97 | 1005.9 |
| 20260506070804 | 69 | 86 | 1.0 | 6.0 | 0.04 | 0.06 | 0.06 | 97 | 1005.9 |
| 20260506070704 | 69 | 97 | 1.0 | 6.0 | 0.04 | 0.06 | 0.06 | 97 | 1005.7 |
| 20260506070604 | 69 | 92 | 1.0 | 6.0 | 0.05 | 0.06 | 0.06 | 97 | 1005.7 |
| 20260506070505 | 69 | 94 | 2.0 | 6.0 | 0.05 | 0.06 | 0.06 | 97 | 1005.8 |
| 20260506070403 | 69 | 96 | 3.0 | 6.0 | 0.05 | 0.06 | 0.06 | 97 | 1005.8 |
| 20260506070307 | 69 | 90 | 1.0 | 4.0 | 0.06 | 0.06 | 0.06 | 97 | 1005.7 |
| 20260506070203 | 69 | 75 | 2.0 | 4.0 | 0.06 | 0.06 | 0.06 | 97 | 1005.8 |
| 20260506070103 | 69 | 73 | 2.0 | 4.0 | 0.06 | 0.06 | 0.06 | 97 | 1006.0 |
| 20260506062404 | 69 | 108 | 2.0 | 6.0 | 0.06 | 0.06 | 0.06 | 96 | 1006.3 |
| 20260506062317 | 69 | 108 | 2.0 | 6.0 | 0.06 | 0.06 | 0.06 | 96 | 1006.2 |
| 20260506062306 | 69 | 107 | 2.0 | 6.0 | 0.06 | 0.06 | 0.06 | 96 | 1006.2 |
| 20260506062204 | 69 | 91 | 1.0 | 7.0 | 0.05 | 0.05 | 0.05 | 96 | 1006.2 |
| 20260506062115 | 69 | 89 | 2.0 | 8.0 | 0.05 | 0.05 | 0.05 | 96 | 1006.2 |
| 20260506062018 | 69 | 83 | 2.0 | 8.0 | 0.05 | 0.05 | 0.05 | 96 | 1006.1 |
| 20260506062003 | 69 | 80 | 2.0 | 8.0 | 0.05 | 0.05 | 0.05 | 96 | 1006.1 |
| 20260506061703 | 69 | 64 | 3.0 | 8.0 | 0.05 | 0.05 | 0.05 | 96 | 1006.2 |
| 20260506061604 | 69 | 58 | 4.0 | 8.0 | 0.05 | 0.05 | 0.05 | 96 | 1006.3 |
| 20260506061505 | 69 | 61 | 2.0 | 7.0 | 0.02 | 0.02 | 0.04 | 96 | 1006.6 |
| 20260506061406 | 69 | 56 | 3.0 | 7.0 | 0.02 | 0.02 | 0.02 | 96 | 1006.5 |
| 20260506061305 | 69 | 55 | 2.0 | 6.0 | 0.02 | 0.02 | 0.02 | 96 | 1006.5 |
| 20260506061206 | 69 | 58 | 1.0 | 6.0 | 0.02 | 0.02 | 0.02 | 96 | 1006.3 |
| 20260506061103 | 69 | 57 | 2.0 | 6.0 | 0.02 | 0.02 | 0.02 | 96 | 1006.4 |
| 20260506061014 | 69 | 55 | 3.0 | 6.0 | 0.02 | 0.02 | 0.02 | 96 | 1006.5 |
| 20260506061005 | 69 | 53 | 2.0 | 4.0 | 0.02 | 0.02 | 0.02 | 96 | 1006.4 |
| 20260506060905 | 69 | 71 | 1.0 | 4.0 | 0.02 | 0.02 | 0.02 | 96 | 1006.5 |
| 20260506060704 | 69 | 76 | 2.0 | 4.0 | 0.02 | 0.02 | 0.02 | 96 | 1006.5 |
| 20260506060604 | 69 | 79 | 2.0 | 4.0 | 0.01 | 0.01 | 0.01 | 96 | 1006.4 |
| 20260506060405 | 69 | 74 | 2.0 | 4.0 | 0.01 | 0.01 | 0.01 | 96 | 1006.5 |
| 20260506060303 | 69 | 74 | 1.0 | 4.0 | 0.00 | 0.00 | 0.00 | 96 | 1006.5 |
| 20260506060218 | 69 | 73 | 1.0 | 4.0 | 0.00 | 0.00 | 0.00 | 96 | 1006.4 |
| 20260506060116 | 69 | 70 | 1.0 | 4.0 | 0.00 | 0.00 | 0.00 | 96 | 1006.4 |
| 20260506051404 | 69 | 52 | 2.0 | 4.0 | 0.00 | 0.00 | 0.00 | 95 | 1007.1 |
| 20260506051303 | 69 | 46 | 1.0 | 4.0 | 0.00 | 0.00 | 0.00 | 95 | 1006.9 |
| 20260506051205 | 69 | 47 | 1.0 | 4.0 | 0.00 | 0.00 | 0.00 | 95 | 1007.1 |
| 20260506051104 | 69 | 50 | 1.0 | 4.0 | 0.00 | 0.00 | 0.00 | 95 | 1007.0 |
| 20260506051003 | 69 | 57 | 2.0 | 4.0 | 0.00 | 0.00 | 0.00 | 95 | 1007.1 |
| 20260506050903 | 69 | 71 | 2.0 | 4.0 | 0.00 | 0.00 | 0.00 | 95 | 1007.0 |
| 20260506050803 | 69 | 83 | 2.0 | 4.0 | 0.00 | 0.00 | 0.00 | 95 | 1007.0 |
| 20260506050703 | 69 | 91 | 2.0 | 4.0 | 0.00 | 0.00 | 0.00 | 95 | 1007.1 |
| 20260506050614 | 69 | 102 | 2.0 | 4.0 | 0.00 | 0.00 | 0.00 | 95 | 1007.0 |
| 20260506050603 | 69 | 102 | 2.0 | 4.0 | 0.00 | 0.00 | 0.00 | 95 | 1007.2 |
| 20260506050303 | 69 | 85 | 2.0 | 4.0 | 0.00 | 0.00 | 0.00 | 95 | 1006.8 |
| 20260506050203 | 69 | 81 | 1.0 | 4.0 | 0.00 | 0.00 | 0.00 | 95 | 1007.1 |
| 20260506045103 | 69 | 85 | 2.0 | 4.0 | 0.00 | 0.00 | 0.00 | 95 | 1007.1 |
| 20260506045005 | 69 | 83 | 2.0 | 4.0 | 0.00 | 0.00 | 0.00 | 95 | 1007.0 |
| 20260506044915 | 69 | 71 | 1.0 | 4.0 | 0.00 | 0.00 | 0.00 | 95 | 1007.2 |
| 20260506044904 | 69 | 70 | 1.0 | 4.0 | 0.00 | 0.00 | 0.00 | 95 | 1007.2 |
| 20260506044804 | 69 | 68 | 2.0 | 4.0 | 0.00 | 0.00 | 0.00 | 95 | 1007.1 |
| 20260506044603 | 69 | 69 | 1.0 | 4.0 | 0.00 | 0.00 | 0.00 | 95 | 1006.9 |
| 20260506044505 | 69 | 67 | 2.0 | 4.0 | 0.00 | 0.00 | 0.00 | 95 | 1007.2 |
| 20260506044418 | 69 | 72 | 1.0 | 4.0 | 0.00 | 0.00 | 0.00 | 95 | 1006.9 |
| 20260506044404 | 69 | 73 | 1.0 | 4.0 | 0.00 | 0.00 | 0.00 | 95 | 1006.9 |
| 20260506044303 | 69 | 78 | 2.0 | 4.0 | 0.00 | 0.00 | 0.00 | 95 | 1007.2 |
| 20260506044103 | 69 | 65 | 1.0 | 4.0 | 0.00 | 0.00 | 0.00 | 95 | 1007.1 |
| 20260506044005 | 69 | 74 | 2.0 | 4.0 | 0.00 | 0.00 | 0.00 | 95 | 1007.1 |
| 20260506043907 | 69 | 77 | 1.0 | 4.0 | 0.00 | 0.00 | 0.00 | 95 | 1006.8 |
| 20260506043804 | 69 | 70 | 1.0 | 4.0 | 0.00 | 0.00 | 0.00 | 95 | 1007.0 |
| 20260506043704 | 69 | 66 | 1.0 | 4.0 | 0.00 | 0.00 | 0.00 | 95 | 1007.0 |
| 20260506043604 | 69 | 66 | 2.0 | 4.0 | 0.00 | 0.00 | 0.00 | 95 | 1006.9 |
| 20260506043506 | 69 | 66 | 1.0 | 2.0 | 0.00 | 0.00 | 0.00 | 95 | 1007.1 |
| 20260506043414 | 69 | 68 | 2.0 | 2.0 | 0.00 | 0.00 | 0.00 | 95 | 1007.3 |
| 20260506043404 | 69 | 67 | 1.0 | 2.0 | 0.00 | 0.00 | 0.00 | 95 | 1007.2 |
| 20260506043305 | 69 | 71 | 0.0 | 2.0 | 0.00 | 0.00 | 0.00 | 95 | 1007.0 |
| 20260506043216 | 69 | 78 | 1.0 | 2.0 | 0.00 | 0.00 | 0.00 | 95 | 1007.1 |
| 20260506043103 | 69 | 88 | 2.0 | 4.0 | 0.00 | 0.00 | 0.00 | 95 | 1006.9 |
| 20260506042904 | 69 | 79 | 1.0 | 4.0 | 0.00 | 0.00 | 0.00 | 95 | 1007.0 |
| 20260506042805 | 69 | 78 | 2.0 | 4.0 | 0.00 | 0.00 | 0.00 | 95 | 1006.9 |
| 20260506042703 | 69 | 72 | 1.0 | 4.0 | 0.00 | 0.00 | 0.00 | 95 | 1007.1 |
| 20260506042604 | 69 | 81 | 2.0 | 4.0 | 0.00 | 0.00 | 0.00 | 95 | 1007.0 |
| 20260506042504 | 69 | 88 | 1.0 | 4.0 | 0.00 | 0.00 | 0.00 | 95 | 1007.1 |
| 20260506042404 | 69 | 99 | 1.0 | 4.0 | 0.00 | 0.00 | 0.00 | 95 | 1007.1 |
| 20260506042305 | 69 | 101 | 2.0 | 4.0 | 0.00 | 0.00 | 0.00 | 95 | 1007.1 |
| 20260506042204 | 69 | 105 | 2.0 | 4.0 | 0.00 | 0.00 | 0.00 | 95 | 1007.0 |
| 20260506042105 | 69 | 91 | 2.0 | 4.0 | 0.00 | 0.00 | 0.00 | 95 | 1007.1 |
| 20260506042006 | 69 | 96 | 1.0 | 4.0 | 0.00 | 0.00 | 0.00 | 95 | 1007.3 |
| 20260506041905 | 69 | 92 | 1.0 | 4.0 | 0.00 | 0.00 | 0.00 | 95 | 1007.2 |
| 20260506041817 | 69 | 87 | 2.0 | 4.0 | 0.00 | 0.00 | 0.00 | 95 | 1007.1 |
| 20260506041804 | 69 | 85 | 1.0 | 4.0 | 0.00 | 0.00 | 0.00 | 95 | 1007.2 |
| 20260506041705 | 69 | 81 | 2.0 | 4.0 | 0.00 | 0.00 | 0.00 | 95 | 1007.0 |
| 20260506041619 | 69 | 88 | 2.0 | 4.0 | 0.00 | 0.00 | 0.00 | 95 | 1007.3 |
| 20260506041504 | 69 | 83 | 2.0 | 4.0 | 0.00 | 0.00 | 0.00 | 95 | 1007.1 |
| 20260506041305 | 69 | 67 | 1.0 | 4.0 | 0.00 | 0.00 | 0.00 | 95 | 1007.1 |
| 20260506041203 | 69 | 67 | 1.0 | 4.0 | 0.00 | 0.00 | 0.00 | 95 | 1007.5 |
| 20260506040903 | 69 | 66 | 2.0 | 4.0 | 0.00 | 0.00 | 0.00 | 95 | 1007.1 |
| 20260506040808 | 69 | 74 | 1.0 | 4.0 | 0.00 | 0.00 | 0.00 | 95 | 1007.3 |
| 20260506040715 | 69 | 78 | 1.0 | 4.0 | 0.00 | 0.00 | 0.00 | 95 | 1007.0 |
| 20260506040705 | 69 | 79 | 1.0 | 6.0 | 0.00 | 0.00 | 0.00 | 95 | 1007.1 |
| 20260506040604 | 69 | 79 | 2.0 | 6.0 | 0.00 | 0.00 | 0.00 | 95 | 1007.1 |
| 20260506040403 | 69 | 64 | 2.0 | 6.0 | 0.00 | 0.00 | 0.00 | 95 | 1007.2 |
| 20260506040305 | 69 | 65 | 2.0 | 6.0 | 0.00 | 0.00 | 0.00 | 95 | 1007.3 |
| 20260506040203 | 69 | 67 | 3.0 | 6.0 | 0.00 | 0.00 | 0.00 | 95 | 1007.0 |
| 20260506040104 | 69 | 67 | 3.0 | 6.0 | 0.00 | 0.00 | 0.00 | 95 | 1007.1 |
| 20260506040005 | 69 | 73 | 2.0 | 6.0 | 0.00 | 0.00 | 0.00 | 95 | 1007.0 |
| 20260506035903 | 69 | 93 | 2.0 | 4.0 | 0.00 | 0.00 | 0.00 | 95 | 1007.2 |
| 20260506035805 | 69 | 91 | 2.0 | 4.0 | 0.00 | 0.00 | 0.00 | 95 | 1007.4 |
| 20260506035703 | 69 | 96 | 1.0 | 4.0 | 0.00 | 0.00 | 0.00 | 95 | 1007.2 |
| 20260506035603 | 69 | 100 | 2.0 | 4.0 | 0.00 | 0.00 | 0.00 | 95 | 1007.1 |
| 20260506035505 | 69 | 101 | 2.0 | 4.0 | 0.00 | 0.00 | 0.00 | 95 | 1007.1 |
| 20260506035403 | 69 | 91 | 2.0 | 4.0 | 0.00 | 0.00 | 0.00 | 95 | 1007.0 |
| 20260506035306 | 69 | 86 | 2.0 | 4.0 | 0.00 | 0.00 | 0.00 | 95 | 1007.1 |
| 20260506035204 | 69 | 74 | 2.0 | 4.0 | 0.00 | 0.00 | 0.00 | 95 | 1006.9 |
| 20260506035103 | 69 | 71 | 1.0 | 4.0 | 0.00 | 0.00 | 0.00 | 95 | 1007.1 |
| 20260506035016 | 69 | 67 | 2.0 | 4.0 | 0.00 | 0.00 | 0.00 | 95 | 1007.2 |
| 20260506034915 | 70 | 82 | 0.0 | 4.0 | 0.00 | 0.00 | 0.00 | 95 | 1007.1 |
| 20260506034904 | 70 | 86 | 0.0 | 4.0 | 0.00 | 0.00 | 0.00 | 95 | 1007.1 |
| 20260506034603 | 69 | 94 | 3.0 | 4.0 | 0.00 | 0.00 | 0.00 | 95 | 1007.2 |
| 20260506034504 | 70 | 77 | 3.0 | 4.0 | 0.00 | 0.00 | 0.00 | 95 | 1007.1 |
| 20260506034405 | 70 | 74 | 1.0 | 4.0 | 0.00 | 0.00 | 0.00 | 95 | 1007.1 |
| 20260506034207 | 70 | 81 | 1.0 | 4.0 | 0.00 | 0.00 | 0.00 | 95 | 1007.2 |
| 20260506034104 | 70 | 83 | 2.0 | 4.0 | 0.00 | 0.00 | 0.00 | 95 | 1007.0 |
| 20260506034005 | 70 | 101 | 2.0 | 4.0 | 0.00 | 0.00 | 0.00 | 95 | 1007.2 |
| 20260506033905 | 70 | 102 | 1.0 | 6.0 | 0.00 | 0.00 | 0.00 | 95 | 1007.1 |
| 20260506033804 | 70 | 91 | 1.0 | 6.0 | 0.00 | 0.00 | 0.00 | 95 | 1007.1 |
| 20260506033704 | 70 | 100 | 1.0 | 6.0 | 0.00 | 0.00 | 0.00 | 95 | 1007.2 |
| 20260506033505 | 70 | 78 | 2.0 | 6.0 | 0.00 | 0.00 | 0.00 | 95 | 1007.1 |
| 20260506033404 | 70 | 62 | 3.0 | 6.0 | 0.00 | 0.00 | 0.00 | 95 | 1007.1 |
| 20260506033304 | 70 | 66 | 2.0 | 4.0 | 0.00 | 0.00 | 0.00 | 95 | 1007.3 |
| 20260506033216 | 70 | 61 | 2.0 | 4.0 | 0.00 | 0.00 | 0.00 | 95 | 1007.3 |
| 20260506033203 | 70 | 62 | 2.0 | 4.0 | 0.00 | 0.00 | 0.00 | 95 | 1007.3 |
| 20260506033103 | 70 | 69 | 0.0 | 4.0 | 0.00 | 0.00 | 0.00 | 95 | 1007.1 |
| 20260506032904 | 70 | 76 | 2.0 | 4.0 | 0.00 | 0.00 | 0.00 | 95 | 1007.2 |
| 20260506032804 | 70 | 79 | 2.0 | 4.0 | 0.00 | 0.00 | 0.00 | 95 | 1007.3 |
| 20260506032704 | 70 | 78 | 2.0 | 6.0 | 0.00 | 0.00 | 0.00 | 96 | 1006.9 |
| 20260506032605 | 70 | 74 | 1.0 | 6.0 | 0.00 | 0.00 | 0.00 | 96 | 1007.3 |
| 20260506032504 | 70 | 67 | 2.0 | 6.0 | 0.00 | 0.00 | 0.00 | 96 | 1007.1 |
| 20260506032406 | 70 | 75 | 2.0 | 6.0 | 0.00 | 0.00 | 0.00 | 96 | 1007.2 |
| 20260506032305 | 70 | 67 | 3.0 | 6.0 | 0.00 | 0.00 | 0.00 | 96 | 1007.1 |
| 20260506032203 | 70 | 68 | 2.0 | 6.0 | 0.00 | 0.00 | 0.00 | 96 | 1007.1 |
| 20260506032103 | 70 | 72 | 2.0 | 6.0 | 0.00 | 0.00 | 0.00 | 96 | 1007.3 |
| 20260506032006 | 70 | 81 | 2.0 | 6.0 | 0.00 | 0.00 | 0.00 | 96 | 1007.3 |
| 20260506031903 | 70 | 81 | 2.0 | 6.0 | 0.00 | 0.00 | 0.00 | 96 | 1007.4 |
| 20260506031804 | 70 | 92 | 2.0 | 6.0 | 0.00 | 0.00 | 0.00 | 96 | 1007.2 |
| 20260506031705 | 70 | 90 | 2.0 | 6.0 | 0.00 | 0.00 | 0.00 | 96 | 1007.1 |
| 20260506031508 | 70 | 91 | 2.0 | 6.0 | 0.00 | 0.00 | 0.00 | 96 | 1007.1 |
| 20260506031405 | 70 | 91 | 2.0 | 6.0 | 0.00 | 0.00 | 0.00 | 96 | 1006.9 |
| 20260506031203 | 70 | 86 | 2.0 | 6.0 | 0.00 | 0.00 | 0.00 | 96 | 1007.4 |
| 20260506031104 | 70 | 83 | 2.0 | 6.0 | 0.00 | 0.00 | 0.00 | 96 | 1007.0 |
| 20260506031006 | 70 | 83 | 3.0 | 6.0 | 0.00 | 0.00 | 0.00 | 96 | 1007.3 |
| 20260506030905 | 70 | 71 | 1.0 | 4.0 | 0.00 | 0.00 | 0.00 | 96 | 1007.3 |
| 20260506030703 | 70 | 65 | 0.0 | 4.0 | 0.00 | 0.00 | 0.00 | 96 | 1007.3 |
| 20260506030604 | 70 | 60 | 2.0 | 4.0 | 0.00 | 0.00 | 0.00 | 96 | 1007.3 |
| 20260506030503 | 70 | 57 | 2.0 | 4.0 | 0.00 | 0.00 | 0.00 | 96 | 1007.3 |
| 20260506030403 | 70 | 52 | 2.0 | 4.0 | 0.00 | 0.00 | 0.00 | 96 | 1007.4 |
| 20260506030305 | 70 | 52 | 1.0 | 4.0 | 0.00 | 0.00 | 0.00 | 96 | 1007.4 |
| 20260506030203 | 70 | 52 | 2.0 | 4.0 | 0.00 | 0.00 | 0.00 | 96 | 1007.2 |
| 20260506030105 | 70 | 56 | 2.0 | 4.0 | 0.00 | 0.00 | 0.00 | 96 | 1007.1 |
| 20260506030009 | 70 | 69 | 2.0 | 4.0 | 0.00 | 0.00 | 0.00 | 96 | 1007.2 |
| 20260506025908 | 70 | 71 | 1.0 | 4.0 | 0.00 | 0.00 | 0.00 | 96 | 1007.2 |
| 20260506025803 | 71 | 72 | 2.0 | 4.0 | 0.00 | 0.00 | 0.00 | 96 | 1007.2 |
| 20260506025703 | 71 | 79 | 2.0 | 4.0 | 0.00 | 0.00 | 0.00 | 96 | 1007.2 |
| 20260506025615 | 71 | 90 | 2.0 | 4.0 | 0.00 | 0.00 | 0.00 | 96 | 1007.3 |
| 20260506025504 | 71 | 84 | 1.0 | 4.0 | 0.00 | 0.00 | 0.00 | 96 | 1007.4 |
| 20260506025306 | 71 | 102 | 1.0 | 4.0 | 0.00 | 0.00 | 0.00 | 96 | 1007.4 |
| 20260506025215 | 71 | 102 | 2.0 | 4.0 | 0.00 | 0.00 | 0.00 | 96 | 1007.1 |
| 20260506025205 | 71 | 98 | 2.0 | 4.0 | 0.00 | 0.00 | 0.00 | 96 | 1007.1 |
| 20260506025106 | 71 | 92 | 1.0 | 4.0 | 0.00 | 0.00 | 0.00 | 96 | 1007.3 |
| 20260506024916 | 71 | 101 | 2.0 | 4.0 | 0.00 | 0.00 | 0.00 | 97 | 1007.6 |
| 20260506024904 | 71 | 99 | 2.0 | 4.0 | 0.00 | 0.00 | 0.00 | 97 | 1007.6 |
| 20260506024804 | 71 | 85 | 1.0 | 4.0 | 0.00 | 0.00 | 0.00 | 96 | 1007.4 |
| 20260506024606 | 71 | 87 | 1.0 | 7.0 | 0.00 | 0.00 | 0.00 | 96 | 1007.6 |
| 20260506024504 | 71 | 85 | 1.0 | 7.0 | 0.00 | 0.00 | 0.00 | 96 | 1007.5 |
| 20260506024413 | 71 | 78 | 1.0 | 7.0 | 0.00 | 0.00 | 0.00 | 97 | 1007.5 |
| 20260506024404 | 71 | 76 | 1.0 | 7.0 | 0.00 | 0.00 | 0.00 | 97 | 1007.5 |
| 20260506024317 | 71 | 77 | 2.0 | 7.0 | 0.00 | 0.00 | 0.00 | 97 | 1007.4 |
| 20260506024304 | 71 | 78 | 2.0 | 7.0 | 0.00 | 0.00 | 0.00 | 97 | 1007.4 |
| 20260506024005 | 71 | 66 | 1.0 | 4.0 | 0.00 | 0.00 | 0.00 | 97 | 1007.5 |
| 20260506023905 | 71 | 67 | 1.0 | 4.0 | 0.00 | 0.00 | 0.00 | 97 | 1007.6 |
| 20260506023804 | 71 | 60 | 1.0 | 4.0 | 0.00 | 0.00 | 0.00 | 97 | 1007.6 |
| 20260506023704 | 71 | 51 | 1.0 | 4.0 | 0.00 | 0.00 | 0.00 | 97 | 1007.4 |
| 20260506023605 | 71 | 59 | 1.0 | 4.0 | 0.00 | 0.00 | 0.00 | 97 | 1007.5 |
| 20260506023405 | 71 | 63 | 1.0 | 4.0 | 0.00 | 0.00 | 0.00 | 97 | 1007.5 |
| 20260506023304 | 71 | 69 | 2.0 | 4.0 | 0.00 | 0.00 | 0.00 | 97 | 1007.4 |
| 20260506023204 | 71 | 68 | 1.0 | 4.0 | 0.00 | 0.00 | 0.00 | 96 | 1007.4 |
| 20260506023104 | 71 | 53 | 1.0 | 4.0 | 0.00 | 0.00 | 0.00 | 96 | 1007.3 |
| 20260506023004 | 71 | 52 | 2.0 | 4.0 | 0.00 | 0.00 | 0.00 | 96 | 1007.3 |
| 20260506022903 | 71 | 44 | 0.0 | 4.0 | 0.00 | 0.00 | 0.00 | 97 | 1007.3 |
| 20260506022704 | 71 | 45 | 1.0 | 4.0 | 0.00 | 0.00 | 0.00 | 96 | 1007.3 |
| 20260506022603 | 71 | 62 | 1.0 | 4.0 | 0.00 | 0.00 | 0.00 | 96 | 1007.2 |
| 20260506022503 | 71 | 69 | 1.0 | 4.0 | 0.00 | 0.00 | 0.00 | 96 | 1007.4 |
| 20260506022415 | 71 | 68 | 0.0 | 4.0 | 0.00 | 0.00 | 0.00 | 96 | 1007.4 |
| 20260506022405 | 71 | 69 | 0.0 | 4.0 | 0.00 | 0.00 | 0.00 | 96 | 1007.4 |
| 20260506022310 | 71 | 68 | 0.0 | 4.0 | 0.00 | 0.00 | 0.00 | 96 | 1007.5 |
| 20260506022217 | 71 | 72 | 2.0 | 4.0 | 0.00 | 0.00 | 0.00 | 96 | 1007.5 |
| 20260506022103 | 71 | 75 | 2.0 | 4.0 | 0.00 | 0.00 | 0.00 | 96 | 1007.5 |
| 20260506021906 | 71 | 82 | 1.0 | 4.0 | 0.00 | 0.00 | 0.00 | 96 | 1007.3 |
| 20260506021805 | 71 | 84 | 2.0 | 4.0 | 0.00 | 0.00 | 0.00 | 96 | 1007.4 |
| 20260506021705 | 71 | 88 | 3.0 | 4.0 | 0.00 | 0.00 | 0.00 | 96 | 1007.6 |
| 20260506021603 | 71 | 84 | 2.0 | 4.0 | 0.00 | 0.00 | 0.00 | 96 | 1007.3 |
| 20260506021503 | 71 | 77 | 1.0 | 6.0 | 0.00 | 0.00 | 0.00 | 96 | 1007.5 |
| 20260506021403 | 71 | 77 | 1.0 | 6.0 | 0.00 | 0.00 | 0.00 | 96 | 1007.4 |
| 20260506021303 | 71 | 77 | 2.0 | 6.0 | 0.00 | 0.00 | 0.00 | 96 | 1007.5 |
| 20260506021203 | 71 | 84 | 1.0 | 6.0 | 0.00 | 0.00 | 0.00 | 96 | 1007.5 |
| 20260506021117 | 71 | 82 | 1.0 | 6.0 | 0.00 | 0.00 | 0.00 | 96 | 1007.3 |
| 20260506021103 | 71 | 81 | 2.0 | 6.0 | 0.00 | 0.00 | 0.00 | 96 | 1007.2 |
| 20260506021004 | 71 | 80 | 3.0 | 6.0 | 0.00 | 0.00 | 0.00 | 96 | 1007.5 |
| 20260506020803 | 71 | 80 | 2.0 | 6.0 | 0.00 | 0.00 | 0.00 | 96 | 1007.4 |
| 20260506020705 | 72 | 74 | 3.0 | 6.0 | 0.00 | 0.00 | 0.00 | 96 | 1007.5 |
| 20260506020604 | 72 | 74 | 3.0 | 6.0 | 0.00 | 0.00 | 0.00 | 96 | 1007.3 |
| 20260506020505 | 72 | 69 | 0.0 | 6.0 | 0.00 | 0.00 | 0.00 | 96 | 1007.4 |
| 20260506020304 | 72 | 66 | 1.0 | 6.0 | 0.00 | 0.00 | 0.00 | 96 | 1007.5 |
| 20260506020118 | 72 | 66 | 2.0 | 6.0 | 0.00 | 0.00 | 0.00 | 96 | 1007.7 |
| 20260506020104 | 72 | 68 | 2.0 | 6.0 | 0.00 | 0.00 | 0.00 | 96 | 1007.7 |
| 20260506020005 | 72 | 73 | 1.0 | 4.0 | 0.00 | 0.00 | 0.00 | 96 | 1007.5 |
| 20260506015705 | 72 | 71 | 0.0 | 4.0 | 0.00 | 0.00 | 0.00 | 96 | 1007.5 |
| 20260506015603 | 72 | 72 | 0.0 | 4.0 | 0.00 | 0.00 | 0.00 | 96 | 1007.3 |
| 20260506015404 | 72 | 79 | 1.0 | 4.0 | 0.00 | 0.00 | 0.00 | 96 | 1007.4 |
| 20260506015306 | 72 | 81 | 2.0 | 4.0 | 0.00 | 0.00 | 0.00 | 96 | 1007.6 |
| 20260506015204 | 72 | 81 | 0.0 | 4.0 | 0.00 | 0.00 | 0.00 | 96 | 1007.4 |
| 20260506015114 | 72 | 77 | 0.0 | 4.0 | 0.00 | 0.00 | 0.00 | 96 | 1007.5 |
| 20260506015106 | 72 | 77 | 1.0 | 4.0 | 0.00 | 0.00 | 0.00 | 96 | 1007.5 |
| 20260506015007 | 72 | 77 | 1.0 | 4.0 | 0.00 | 0.00 | 0.00 | 96 | 1007.4 |
| 20260506014803 | 72 | 74 | 1.0 | 4.0 | 0.00 | 0.00 | 0.00 | 96 | 1007.7 |
| 20260506014713 | 72 | 71 | 2.0 | 4.0 | 0.00 | 0.00 | 0.00 | 96 | 1007.5 |
| 20260506014705 | 72 | 71 | 2.0 | 4.0 | 0.00 | 0.00 | 0.00 | 96 | 1007.4 |
| 20260506014604 | 72 | 74 | 2.0 | 4.0 | 0.00 | 0.00 | 0.00 | 96 | 1007.4 |
| 20260506014516 | 72 | 70 | 2.0 | 4.0 | 0.00 | 0.00 | 0.00 | 96 | 1007.6 |
| 20260506014405 | 72 | 65 | 1.0 | 4.0 | 0.00 | 0.00 | 0.00 | 96 | 1007.6 |
| 20260506014318 | 72 | 58 | 0.0 | 4.0 | 0.00 | 0.00 | 0.00 | 96 | 1007.5 |
| 20260506014004 | 72 | 55 | 2.0 | 4.0 | 0.00 | 0.00 | 0.00 | 96 | 1007.6 |
| 20260506013903 | 72 | 65 | 2.0 | 6.0 | 0.00 | 0.00 | 0.00 | 96 | 1007.5 |
| 20260506013804 | 72 | 66 | 2.0 | 6.0 | 0.00 | 0.00 | 0.00 | 96 | 1007.5 |
| 20260506013709 | 72 | 71 | 2.0 | 6.0 | 0.00 | 0.00 | 0.00 | 96 | 1007.6 |
| 20260506013505 | 72 | 68 | 2.0 | 6.0 | 0.00 | 0.00 | 0.00 | 96 | 1007.5 |
| 20260506013405 | 72 | 60 | 2.0 | 4.0 | 0.00 | 0.00 | 0.00 | 96 | 1007.2 |
| 20260506013307 | 72 | 64 | 1.0 | 8.0 | 0.00 | 0.00 | 0.00 | 96 | 1007.4 |
| 20260506013205 | 72 | 62 | 1.0 | 8.0 | 0.00 | 0.00 | 0.00 | 96 | 1007.4 |
| 20260506013104 | 72 | 61 | 2.0 | 8.0 | 0.00 | 0.00 | 0.00 | 96 | 1007.6 |
| 20260506013019 | 72 | 59 | 2.0 | 8.0 | 0.00 | 0.00 | 0.00 | 96 | 1007.6 |
| 20260506013003 | 72 | 59 | 3.0 | 8.0 | 0.00 | 0.00 | 0.00 | 96 | 1007.3 |
| 20260506012904 | 72 | 60 | 2.0 | 8.0 | 0.00 | 0.00 | 0.00 | 96 | 1007.5 |
| 20260506012704 | 72 | 52 | 2.0 | 6.0 | 0.00 | 0.00 | 0.00 | 96 | 1007.4 |
| 20260506012604 | 72 | 47 | 2.0 | 6.0 | 0.00 | 0.00 | 0.00 | 96 | 1007.5 |
| 20260506012504 | 72 | 48 | 2.0 | 6.0 | 0.00 | 0.00 | 0.00 | 96 | 1007.5 |
| 20260506012403 | 72 | 46 | 1.0 | 6.0 | 0.00 | 0.00 | 0.00 | 96 | 1007.5 |
| 20260506012307 | 72 | 43 | 2.0 | 6.0 | 0.00 | 0.00 | 0.00 | 96 | 1007.5 |
| 20260506012205 | 72 | 39 | 2.0 | 6.0 | 0.00 | 0.00 | 0.00 | 96 | 1007.4 |
| 20260506012103 | 72 | 43 | 2.0 | 4.0 | 0.00 | 0.00 | 0.00 | 96 | 1007.3 |
| 20260506012015 | 72 | 46 | 2.0 | 4.0 | 0.00 | 0.00 | 0.00 | 96 | 1007.3 |
| 20260506012003 | 72 | 54 | 2.0 | 4.0 | 0.00 | 0.00 | 0.00 | 96 | 1007.3 |
| 20260506011904 | 72 | 69 | 1.0 | 4.0 | 0.00 | 0.00 | 0.00 | 96 | 1007.3 |
| 20260506011817 | 72 | 67 | 2.0 | 6.0 | 0.00 | 0.00 | 0.00 | 96 | 1007.4 |
| 20260506011707 | 72 | 74 | 2.0 | 6.0 | 0.00 | 0.00 | 0.00 | 96 | 1007.3 |
| 20260506011507 | 72 | 72 | 2.0 | 6.0 | 0.00 | 0.00 | 0.00 | 96 | 1007.3 |
| 20260506011403 | 72 | 56 | 2.0 | 7.0 | 0.00 | 0.00 | 0.00 | 96 | 1007.6 |
| 20260506011305 | 72 | 52 | 2.0 | 7.0 | 0.00 | 0.00 | 0.00 | 96 | 1007.3 |
| 20260506011205 | 72 | 65 | 2.0 | 7.0 | 0.00 | 0.00 | 0.00 | 96 | 1007.4 |
| 20260506011103 | 72 | 78 | 2.0 | 7.0 | 0.00 | 0.00 | 0.00 | 96 | 1007.4 |
| 20260506011004 | 72 | 87 | 4.0 | 7.0 | 0.00 | 0.00 | 0.00 | 96 | 1007.5 |
| 20260506010904 | 72 | 107 | 2.0 | 6.0 | 0.00 | 0.00 | 0.00 | 96 | 1007.3 |
| 20260506010803 | 72 | 109 | 3.0 | 8.0 | 0.00 | 0.00 | 0.00 | 96 | 1007.4 |
| 20260506010705 | 72 | 100 | 3.0 | 8.0 | 0.00 | 0.00 | 0.00 | 96 | 1007.6 |
| 20260506010603 | 72 | 96 | 2.0 | 8.0 | 0.00 | 0.00 | 0.00 | 96 | 1007.5 |
| 20260506010503 | 72 | 96 | 2.0 | 8.0 | 0.00 | 0.00 | 0.00 | 95 | 1007.5 |
| 20260506010403 | 72 | 91 | 4.0 | 8.0 | 0.00 | 0.00 | 0.00 | 95 | 1007.4 |
| 20260506010305 | 72 | 77 | 2.0 | 9.0 | 0.00 | 0.00 | 0.00 | 95 | 1007.5 |
| 20260506010206 | 72 | 75 | 2.0 | 9.0 | 0.00 | 0.00 | 0.00 | 95 | 1007.3 |
| 20260506010103 | 72 | 62 | 4.0 | 9.0 | 0.00 | 0.00 | 0.00 | 95 | 1007.5 |
| 20260506010005 | 72 | 28 | 2.0 | 9.0 | 0.00 | 0.00 | 0.00 | 95 | 1007.3 |
| 20260506005805 | 72 | 63 | 4.0 | 9.0 | 0.00 | 0.00 | 0.00 | 95 | 1007.5 |
| 20260506005704 | 72 | 67 | 4.0 | 8.0 | 0.00 | 0.00 | 0.00 | 95 | 1007.4 |
| 20260506005504 | 72 | 87 | 3.0 | 8.0 | 0.00 | 0.00 | 0.00 | 95 | 1007.5 |
| 20260506005404 | 72 | 74 | 1.0 | 8.0 | 0.00 | 0.00 | 0.00 | 95 | 1007.5 |
| 20260506005306 | 72 | 74 | 4.0 | 8.0 | 0.00 | 0.00 | 0.00 | 95 | 1007.3 |
| 20260506005204 | 72 | 75 | 4.0 | 7.0 | 0.00 | 0.00 | 0.00 | 95 | 1007.1 |
| 20260506005104 | 72 | 78 | 2.0 | 4.0 | 0.00 | 0.00 | 0.00 | 95 | 1007.5 |
| 20260506005004 | 72 | 83 | 3.0 | 4.0 | 0.00 | 0.00 | 0.00 | 95 | 1007.4 |
| 20260506004907 | 72 | 84 | 1.0 | 6.0 | 0.00 | 0.00 | 0.00 | 95 | 1007.4 |
| 20260506004806 | 72 | 86 | 1.0 | 6.0 | 0.00 | 0.00 | 0.00 | 95 | 1007.4 |
| 20260506004704 | 72 | 82 | 3.0 | 6.0 | 0.00 | 0.00 | 0.00 | 95 | 1007.5 |
| 20260506004605 | 72 | 77 | 0.0 | 6.0 | 0.00 | 0.00 | 0.00 | 95 | 1007.3 |
| 20260506004516 | 72 | 76 | 2.0 | 6.0 | 0.00 | 0.00 | 0.00 | 95 | 1007.4 |
| 20260506004504 | 72 | 77 | 2.0 | 6.0 | 0.00 | 0.00 | 0.00 | 95 | 1007.4 |
| 20260506004415 | 73 | 80 | 2.0 | 6.0 | 0.00 | 0.00 | 0.00 | 95 | 1007.3 |
| 20260506004404 | 73 | 82 | 2.0 | 6.0 | 0.00 | 0.00 | 0.00 | 95 | 1007.3 |
| 20260506004217 | 73 | 86 | 3.0 | 6.0 | 0.00 | 0.00 | 0.00 | 95 | 1007.4 |
| 20260506004103 | 73 | 94 | 2.0 | 4.0 | 0.00 | 0.00 | 0.00 | 95 | 1007.6 |
| 20260506003904 | 72 | 98 | 1.0 | 4.0 | 0.00 | 0.00 | 0.00 | 95 | 1007.5 |
| 20260506003805 | 73 | 102 | 2.0 | 4.0 | 0.00 | 0.00 | 0.00 | 95 | 1007.4 |
| 20260506003704 | 73 | 105 | 1.0 | 4.0 | 0.00 | 0.00 | 0.00 | 95 | 1007.4 |
| 20260506003605 | 73 | 108 | 1.0 | 4.0 | 0.00 | 0.00 | 0.00 | 95 | 1007.4 |
| 20260506003504 | 73 | 107 | 1.0 | 4.0 | 0.00 | 0.00 | 0.00 | 95 | 1007.4 |
| 20260506003403 | 73 | 105 | 2.0 | 4.0 | 0.00 | 0.00 | 0.00 | 95 | 1007.4 |
| 20260506003305 | 73 | 100 | 2.0 | 4.0 | 0.00 | 0.00 | 0.00 | 95 | 1007.4 |
| 20260506003116 | 73 | 103 | 2.0 | 4.0 | 0.00 | 0.00 | 0.00 | 95 | 1007.4 |
| 20260506003104 | 73 | 102 | 1.0 | 4.0 | 0.00 | 0.00 | 0.00 | 95 | 1007.3 |
| 20260506003006 | 73 | 100 | 2.0 | 4.0 | 0.00 | 0.00 | 0.00 | 95 | 1007.3 |
| 20260506002817 | 73 | 96 | 0.0 | 4.0 | 0.00 | 0.00 | 0.00 | 95 | 1007.4 |
| 20260506002803 | 73 | 94 | 0.0 | 4.0 | 0.00 | 0.00 | 0.00 | 95 | 1007.4 |
| 20260506002705 | 73 | 88 | 2.0 | 4.0 | 0.00 | 0.00 | 0.00 | 94 | 1007.2 |
| 20260506002614 | 73 | 87 | 2.0 | 4.0 | 0.00 | 0.00 | 0.00 | 94 | 1007.4 |
| 20260506002504 | 73 | 87 | 1.0 | 4.0 | 0.00 | 0.00 | 0.00 | 94 | 1007.3 |
| 20260506002204 | 73 | 80 | 2.0 | 4.0 | 0.00 | 0.00 | 0.00 | 94 | 1007.2 |
| 20260506002103 | 73 | 71 | 2.0 | 4.0 | 0.00 | 0.00 | 0.00 | 94 | 1007.3 |
| 20260506002003 | 73 | 68 | 1.0 | 4.0 | 0.00 | 0.00 | 0.00 | 94 | 1007.3 |
| 20260506001905 | 73 | 74 | 1.0 | 4.0 | 0.00 | 0.00 | 0.00 | 94 | 1007.2 |
| 20260506001803 | 73 | 83 | 1.0 | 6.0 | 0.00 | 0.00 | 0.00 | 94 | 1007.0 |
| 20260506001703 | 73 | 92 | 2.0 | 6.0 | 0.00 | 0.00 | 0.00 | 94 | 1007.1 |
| 20260506001605 | 73 | 100 | 3.0 | 6.0 | 0.00 | 0.00 | 0.00 | 94 | 1007.2 |
| 20260506001519 | 73 | 102 | 2.0 | 6.0 | 0.00 | 0.00 | 0.00 | 94 | 1007.1 |
| 20260506001503 | 73 | 102 | 1.0 | 6.0 | 0.00 | 0.00 | 0.00 | 94 | 1007.1 |
| 20260506001403 | 73 | 99 | 2.0 | 6.0 | 0.00 | 0.00 | 0.00 | 94 | 1007.1 |
| 20260506001215 | 73 | 88 | 2.0 | 6.0 | 0.00 | 0.00 | 0.00 | 94 | 1007.1 |
| 20260506001203 | 73 | 84 | 2.0 | 6.0 | 0.00 | 0.00 | 0.00 | 94 | 1007.1 |
| 20260506001105 | 73 | 74 | 1.0 | 4.0 | 0.00 | 0.00 | 0.00 | 94 | 1007.2 |
| 20260506000903 | 73 | 74 | 0.0 | 4.0 | 0.00 | 0.00 | 0.00 | 94 | 1007.1 |
| 20260506000835 | 73 | 72 | 2.0 | 4.0 | 0.00 | 0.00 | 0.00 | 94 | 1007.1 |
| 20260506000703 | 73 | 47 | 1.0 | 4.0 | 0.00 | 0.00 | 0.00 | 94 | 1007.0 |
| 20260506000604 | 73 | 58 | 1.0 | 4.0 | 0.00 | 0.00 | 0.00 | 94 | 1007.2 |
| 20260506000505 | 73 | 58 | 2.0 | 4.0 | 0.00 | 0.00 | 0.00 | 94 | 1007.1 |
| 20260506000404 | 73 | 60 | 1.0 | 4.0 | 0.00 | 0.00 | 0.00 | 94 | 1007.3 |
| 20260506000304 | 73 | 69 | 2.0 | 4.0 | 0.00 | 0.00 | 0.00 | 94 | 1007.0 |
| 20260506000205 | 73 | 99 | 2.0 | 4.0 | 0.00 | 0.00 | 0.00 | 94 | 1007.1 |
| 20260506000105 | 73 | 92 | 1.0 | 4.0 | 0.00 | 0.00 | 0.00 | 94 | 1007.2 |
| 20260506000004 | 73 | 100 | 1.0 | 4.0 | 0.00 | 0.00 | 0.00 | 94 | 1007.1 |
| 20260505235905 | 73 | 106 | 1.0 | 4.0 | 0.00 | 0.00 | 0.00 | 94 | 1007.0 |
| 20260505235804 | 73 | 112 | 2.0 | 4.0 | 0.00 | 0.00 | 0.00 | 93 | 1007.0 |
| 20260505235705 | 73 | 104 | 2.0 | 4.0 | 0.00 | 0.00 | 0.00 | 93 | 1007.0 |
| 20260505235617 | 73 | 103 | 2.0 | 4.0 | 0.00 | 0.00 | 0.00 | 93 | 1007.1 |
| 20260505235504 | 73 | 107 | 2.0 | 4.0 | 0.00 | 0.00 | 0.00 | 93 | 1007.2 |
| 20260505235305 | 73 | 104 | 2.0 | 4.0 | 0.00 | 0.00 | 0.00 | 93 | 1007.2 |
| 20260505235204 | 73 | 104 | 1.0 | 2.0 | 0.00 | 0.00 | 0.00 | 93 | 1007.3 |
| 20260505235115 | 73 | 100 | 1.0 | 4.0 | 0.00 | 0.00 | 0.00 | 93 | 1007.0 |
| 20260505235104 | 73 | 100 | 2.0 | 4.0 | 0.00 | 0.00 | 0.00 | 93 | 1007.1 |
| 20260505235005 | 73 | 95 | 0.0 | 4.0 | 0.00 | 0.00 | 0.00 | 93 | 1007.1 |
| 20260505234804 | 73 | 99 | 1.0 | 4.0 | 0.00 | 0.00 | 0.00 | 93 | 1007.0 |
| 20260505234714 | 73 | 98 | 2.0 | 4.0 | 0.00 | 0.00 | 0.00 | 93 | 1007.0 |
| 20260505234705 | 74 | 96 | 2.0 | 4.0 | 0.00 | 0.00 | 0.00 | 93 | 1007.5 |
| 20260505234604 | 74 | 98 | 2.0 | 4.0 | 0.00 | 0.00 | 0.00 | 93 | 1006.8 |
| 20260505234405 | 73 | 93 | 2.0 | 4.0 | 0.00 | 0.00 | 0.00 | 93 | 1007.1 |
| 20260505234305 | 74 | 100 | 1.0 | 4.0 | 0.00 | 0.00 | 0.00 | 93 | 1007.2 |
| 20260505234205 | 74 | 103 | 1.0 | 4.0 | 0.00 | 0.00 | 0.00 | 93 | 1007.1 |
| 20260505234104 | 74 | 88 | 1.0 | 4.0 | 0.00 | 0.00 | 0.00 | 93 | 1007.1 |
| 20260505234007 | 74 | 73 | 1.0 | 4.0 | 0.00 | 0.00 | 0.00 | 93 | 1007.3 |
| 20260505233904 | 74 | 69 | 2.0 | 4.0 | 0.00 | 0.00 | 0.00 | 93 | 1007.0 |
| 20260505233803 | 74 | 72 | 1.0 | 4.0 | 0.00 | 0.00 | 0.00 | 93 | 1007.0 |
| 20260505233705 | 74 | 76 | 2.0 | 4.0 | 0.00 | 0.00 | 0.00 | 93 | 1007.1 |
| 20260505233603 | 74 | 112 | 1.0 | 7.0 | 0.00 | 0.00 | 0.00 | 93 | 1007.0 |
| 20260505233503 | 74 | 110 | 2.0 | 7.0 | 0.00 | 0.00 | 0.00 | 92 | 1007.0 |
| 20260505233405 | 74 | 108 | 2.0 | 7.0 | 0.00 | 0.00 | 0.00 | 92 | 1007.2 |
| 20260505233304 | 74 | 105 | 2.0 | 7.0 | 0.00 | 0.00 | 0.00 | 92 | 1007.3 |
| 20260505233203 | 74 | 101 | 2.0 | 7.0 | 0.00 | 0.00 | 0.00 | 92 | 1007.1 |
| 20260505233103 | 74 | 76 | 2.0 | 4.0 | 0.00 | 0.00 | 0.00 | 92 | 1007.0 |
| 20260505233004 | 74 | 75 | 2.0 | 4.0 | 0.00 | 0.00 | 0.00 | 92 | 1007.0 |
| 20260505232903 | 74 | 87 | 2.0 | 4.0 | 0.00 | 0.00 | 0.00 | 92 | 1007.0 |
| 20260505232806 | 74 | 97 | 2.0 | 4.0 | 0.00 | 0.00 | 0.00 | 92 | 1006.9 |
| 20260505232716 | 74 | 98 | 2.0 | 4.0 | 0.00 | 0.00 | 0.00 | 92 | 1007.1 |
| 20260505232605 | 74 | 101 | 1.0 | 4.0 | 0.00 | 0.00 | 0.00 | 92 | 1007.1 |
| 20260505232404 | 74 | 103 | 2.0 | 4.0 | 0.00 | 0.00 | 0.00 | 92 | 1006.8 |
| 20260505232316 | 74 | 103 | 2.0 | 4.0 | 0.00 | 0.00 | 0.00 | 92 | 1006.8 |
| 20260505232305 | 74 | 107 | 2.0 | 4.0 | 0.00 | 0.00 | 0.00 | 92 | 1006.8 |
| 20260505232203 | 74 | 118 | 1.0 | 4.0 | 0.00 | 0.00 | 0.00 | 92 | 1007.0 |
| 20260505232005 | 74 | 122 | 2.0 | 4.0 | 0.00 | 0.00 | 0.00 | 92 | 1007.1 |
| 20260505231904 | 74 | 124 | 2.0 | 4.0 | 0.00 | 0.00 | 0.00 | 92 | 1007.0 |
| 20260505231803 | 74 | 123 | 2.0 | 4.0 | 0.00 | 0.00 | 0.00 | 92 | 1006.9 |
| 20260505231705 | 74 | 108 | 2.0 | 4.0 | 0.00 | 0.00 | 0.00 | 92 | 1007.0 |
| 20260505231616 | 74 | 104 | 2.0 | 4.0 | 0.00 | 0.00 | 0.00 | 92 | 1007.1 |
| 20260505231603 | 74 | 103 | 2.0 | 4.0 | 0.00 | 0.00 | 0.00 | 92 | 1007.1 |
| 20260505231503 | 74 | 95 | 1.0 | 4.0 | 0.00 | 0.00 | 0.00 | 92 | 1006.8 |
| 20260505231304 | 74 | 95 | 1.0 | 4.0 | 0.00 | 0.00 | 0.00 | 92 | 1006.9 |
| 20260505231204 | 74 | 101 | 2.0 | 4.0 | 0.00 | 0.00 | 0.00 | 91 | 1007.1 |
| 20260505231119 | 74 | 107 | 2.0 | 4.0 | 0.00 | 0.00 | 0.00 | 91 | 1006.7 |
| 20260505231104 | 74 | 108 | 2.0 | 4.0 | 0.00 | 0.00 | 0.00 | 91 | 1006.8 |
| 20260505231004 | 74 | 113 | 2.0 | 4.0 | 0.00 | 0.00 | 0.00 | 91 | 1006.8 |
| 20260505230804 | 74 | 123 | 2.0 | 4.0 | 0.00 | 0.00 | 0.00 | 91 | 1007.1 |
| 20260505230703 | 75 | 121 | 1.0 | 4.0 | 0.00 | 0.00 | 0.00 | 91 | 1006.9 |
| 20260505230607 | 75 | 120 | 2.0 | 4.0 | 0.00 | 0.00 | 0.00 | 91 | 1007.0 |
| 20260505230504 | 75 | 115 | 2.0 | 4.0 | 0.00 | 0.00 | 0.00 | 91 | 1006.9 |
| 20260505230410 | 74 | 115 | 0.0 | 4.0 | 0.00 | 0.00 | 0.00 | 91 | 1007.1 |
| 20260505230304 | 75 | 109 | 2.0 | 4.0 | 0.00 | 0.00 | 0.00 | 91 | 1007.1 |
| 20260505230004 | 75 | 119 | 2.0 | 4.0 | 0.00 | 0.00 | 0.00 | 91 | 1007.1 |
| 20260505225904 | 75 | 121 | 2.0 | 4.0 | 0.00 | 0.00 | 0.00 | 91 | 1007.1 |
| 20260505225803 | 75 | 124 | 2.0 | 4.0 | 0.00 | 0.00 | 0.00 | 91 | 1007.1 |
| 20260505225706 | 75 | 103 | 1.0 | 4.0 | 0.00 | 0.00 | 0.00 | 91 | 1007.1 |
| 20260505225605 | 75 | 97 | 2.0 | 4.0 | 0.00 | 0.00 | 0.00 | 91 | 1007.1 |
| 20260505225505 | 75 | 96 | 2.0 | 4.0 | 0.00 | 0.00 | 0.00 | 90 | 1007.0 |
| 20260505225406 | 75 | 96 | 2.0 | 4.0 | 0.00 | 0.00 | 0.00 | 90 | 1006.7 |
| 20260505225306 | 75 | 99 | 2.0 | 4.0 | 0.00 | 0.00 | 0.00 | 90 | 1007.0 |
| 20260505225203 | 75 | 117 | 2.0 | 4.0 | 0.00 | 0.00 | 0.00 | 90 | 1007.0 |
| 20260505225105 | 75 | 127 | 1.0 | 4.0 | 0.00 | 0.00 | 0.00 | 90 | 1006.9 |
| 20260505225004 | 75 | 125 | 1.0 | 4.0 | 0.00 | 0.00 | 0.00 | 90 | 1007.2 |
| 20260505224903 | 75 | 120 | 1.0 | 4.0 | 0.00 | 0.00 | 0.00 | 90 | 1006.9 |
| 20260505224804 | 75 | 113 | 2.0 | 4.0 | 0.00 | 0.00 | 0.00 | 90 | 1007.1 |
| 20260505224715 | 75 | 106 | 1.0 | 4.0 | 0.00 | 0.00 | 0.00 | 90 | 1007.1 |
| 20260505224705 | 75 | 102 | 2.0 | 4.0 | 0.00 | 0.00 | 0.00 | 90 | 1006.8 |
| 20260505224619 | 75 | 92 | 2.0 | 4.0 | 0.00 | 0.00 | 0.00 | 90 | 1006.8 |
| 20260505224603 | 75 | 90 | 2.0 | 4.0 | 0.00 | 0.00 | 0.00 | 90 | 1006.8 |
| 20260505224303 | 75 | 93 | 1.0 | 6.0 | 0.00 | 0.00 | 0.00 | 90 | 1006.9 |
| 20260505224207 | 75 | 99 | 2.0 | 6.0 | 0.00 | 0.00 | 0.00 | 90 | 1006.9 |
| 20260505224117 | 75 | 105 | 1.0 | 6.0 | 0.00 | 0.00 | 0.00 | 90 | 1006.7 |
| 20260505224103 | 75 | 107 | 1.0 | 6.0 | 0.00 | 0.00 | 0.00 | 90 | 1006.7 |
| 20260505224003 | 75 | 109 | 2.0 | 6.0 | 0.00 | 0.00 | 0.00 | 90 | 1006.8 |
| 20260505223808 | 75 | 89 | 2.0 | 6.0 | 0.00 | 0.00 | 0.00 | 90 | 1006.6 |
| 20260505223703 | 75 | 86 | 3.0 | 6.0 | 0.00 | 0.00 | 0.00 | 90 | 1006.5 |
| 20260505223518 | 75 | 102 | 1.0 | 6.0 | 0.00 | 0.00 | 0.00 | 90 | 1006.5 |
| 20260505223503 | 75 | 103 | 3.0 | 6.0 | 0.00 | 0.00 | 0.00 | 89 | 1006.5 |
| 20260505223403 | 75 | 114 | 2.0 | 6.0 | 0.00 | 0.00 | 0.00 | 89 | 1006.8 |
| 20260505223103 | 76 | 105 | 3.0 | 6.0 | 0.00 | 0.00 | 0.00 | 89 | 1006.7 |
| 20260505223003 | 76 | 87 | 2.0 | 4.0 | 0.00 | 0.00 | 0.00 | 89 | 1006.8 |
| 20260505222903 | 76 | 85 | 2.0 | 4.0 | 0.00 | 0.00 | 0.00 | 89 | 1006.4 |
| 20260505222705 | 76 | 93 | 2.0 | 4.0 | 0.00 | 0.00 | 0.00 | 89 | 1006.4 |
| 20260505222603 | 76 | 100 | 1.0 | 4.0 | 0.00 | 0.00 | 0.00 | 89 | 1006.6 |
| 20260505222506 | 76 | 105 | 2.0 | 4.0 | 0.00 | 0.00 | 0.00 | 89 | 1006.4 |
| 20260505222307 | 76 | 108 | 1.0 | 4.0 | 0.00 | 0.00 | 0.00 | 89 | 1006.6 |
| 20260505222204 | 76 | 108 | 3.0 | 4.0 | 0.00 | 0.00 | 0.00 | 89 | 1006.6 |
| 20260505222104 | 76 | 105 | 2.0 | 4.0 | 0.00 | 0.00 | 0.00 | 89 | 1006.6 |
| 20260505222003 | 76 | 105 | 1.0 | 4.0 | 0.00 | 0.00 | 0.00 | 89 | 1006.6 |
| 20260505221903 | 76 | 105 | 1.0 | 4.0 | 0.00 | 0.00 | 0.00 | 89 | 1006.7 |
| 20260505221806 | 76 | 105 | 2.0 | 4.0 | 0.00 | 0.00 | 0.00 | 89 | 1006.6 |
| 20260505221704 | 76 | 106 | 1.0 | 4.0 | 0.00 | 0.00 | 0.00 | 89 | 1006.6 |
| 20260505221604 | 76 | 104 | 1.0 | 4.0 | 0.00 | 0.00 | 0.00 | 89 | 1006.5 |
| 20260505221503 | 76 | 101 | 2.0 | 4.0 | 0.00 | 0.00 | 0.00 | 89 | 1006.4 |
| 20260505221404 | 76 | 96 | 2.0 | 4.0 | 0.00 | 0.00 | 0.00 | 89 | 1006.4 |
| 20260505221307 | 76 | 90 | 2.0 | 4.0 | 0.00 | 0.00 | 0.00 | 89 | 1006.7 |
| 20260505221205 | 76 | 90 | 1.0 | 4.0 | 0.00 | 0.00 | 0.00 | 89 | 1006.6 |
| 20260505221104 | 76 | 88 | 1.0 | 4.0 | 0.00 | 0.00 | 0.00 | 89 | 1006.3 |
| 20260505221004 | 76 | 85 | 1.0 | 4.0 | 0.00 | 0.00 | 0.00 | 89 | 1006.7 |
| 20260505220907 | 76 | 87 | 1.0 | 4.0 | 0.00 | 0.00 | 0.00 | 88 | 1006.5 |
| 20260505220807 | 76 | 87 | 2.0 | 4.0 | 0.00 | 0.00 | 0.00 | 88 | 1006.4 |
| 20260505220704 | 76 | 86 | 2.0 | 2.0 | 0.00 | 0.00 | 0.00 | 88 | 1006.6 |
| 20260505220604 | 76 | 83 | 2.0 | 2.0 | 0.00 | 0.00 | 0.00 | 88 | 1006.7 |
| 20260505220503 | 76 | 85 | 2.0 | 2.0 | 0.00 | 0.00 | 0.00 | 88 | 1006.5 |
| 20260505220408 | 76 | 76 | 2.0 | 4.0 | 0.00 | 0.00 | 0.00 | 88 | 1006.5 |
| 20260505220303 | 76 | 66 | 2.0 | 4.0 | 0.00 | 0.00 | 0.00 | 88 | 1006.6 |
| 20260505220205 | 76 | 59 | 0.0 | 4.0 | 0.00 | 0.00 | 0.00 | 88 | 1006.7 |
| 20260505220104 | 76 | 54 | 1.0 | 4.0 | 0.00 | 0.00 | 0.00 | 88 | 1006.4 |
| 20260505220004 | 76 | 42 | 0.0 | 4.0 | 0.00 | 0.00 | 0.00 | 88 | 1006.6 |
| 20260505215904 | 76 | 29 | 1.0 | 4.0 | 0.00 | 0.00 | 0.00 | 88 | 1006.5 |
| 20260505215803 | 76 | 25 | 2.0 | 4.0 | 0.00 | 0.00 | 0.00 | 88 | 1006.6 |
| 20260505215705 | 76 | 26 | 0.0 | 4.0 | 0.00 | 0.00 | 0.00 | 87 | 1006.5 |
| 20260505215604 | 76 | 32 | 1.0 | 4.0 | 0.00 | 0.00 | 0.00 | 87 | 1006.3 |
| 20260505215503 | 76 | 45 | 1.0 | 4.0 | 0.00 | 0.00 | 0.00 | 87 | 1006.5 |
| 20260505215403 | 76 | 63 | 1.0 | 2.0 | 0.00 | 0.00 | 0.00 | 87 | 1006.5 |
| 20260505215306 | 77 | 82 | 1.0 | 2.0 | 0.00 | 0.00 | 0.00 | 87 | 1006.5 |
| 20260505215218 | 77 | 92 | 1.0 | 2.0 | 0.00 | 0.00 | 0.00 | 87 | 1006.5 |
| 20260505215103 | 77 | 104 | 1.0 | 2.0 | 0.00 | 0.00 | 0.00 | 87 | 1006.4 |
| 20260505214903 | 77 | 112 | 0.0 | 2.0 | 0.00 | 0.00 | 0.00 | 87 | 1006.5 |
| 20260505214803 | 77 | 112 | 0.0 | 2.0 | 0.00 | 0.00 | 0.00 | 87 | 1006.6 |
| 20260505214703 | 77 | 107 | 1.0 | 2.0 | 0.00 | 0.00 | 0.00 | 87 | 1006.5 |
| 20260505214605 | 77 | 103 | 1.0 | 2.0 | 0.00 | 0.00 | 0.00 | 87 | 1006.7 |
| 20260505214506 | 77 | 97 | 1.0 | 2.0 | 0.00 | 0.00 | 0.00 | 87 | 1006.6 |
| 20260505214404 | 77 | 95 | 1.0 | 2.0 | 0.00 | 0.00 | 0.00 | 87 | 1006.5 |
| 20260505214315 | 77 | 91 | 2.0 | 2.0 | 0.00 | 0.00 | 0.00 | 87 | 1006.7 |
| 20260505214203 | 77 | 94 | 1.0 | 2.0 | 0.00 | 0.00 | 0.00 | 87 | 1006.5 |
| 20260505214006 | 77 | 110 | 2.0 | 2.0 | 0.00 | 0.00 | 0.00 | 87 | 1006.6 |
| 20260505213903 | 77 | 118 | 1.0 | 2.0 | 0.00 | 0.00 | 0.00 | 87 | 1006.8 |
| 20260505213803 | 77 | 128 | 0.0 | 2.0 | 0.00 | 0.00 | 0.00 | 87 | 1006.6 |
| 20260505213704 | 77 | 135 | 0.0 | 2.0 | 0.00 | 0.00 | 0.00 | 87 | 1006.6 |
| 20260505213605 | 77 | 135 | 0.0 | 2.0 | 0.00 | 0.00 | 0.00 | 87 | 1006.5 |
| 20260505213506 | 77 | 131 | 0.0 | 2.0 | 0.00 | 0.00 | 0.00 | 87 | 1006.5 |
| 20260505213403 | 77 | 125 | 0.0 | 2.0 | 0.00 | 0.00 | 0.00 | 87 | 1006.6 |
| 20260505213316 | 77 | 123 | 0.0 | 2.0 | 0.00 | 0.00 | 0.00 | 87 | 1006.7 |
| 20260505213304 | 77 | 122 | 0.0 | 2.0 | 0.00 | 0.00 | 0.00 | 87 | 1006.7 |
| 20260505213005 | 77 | 108 | 0.0 | 2.0 | 0.00 | 0.00 | 0.00 | 87 | 1006.6 |
| 20260505212903 | 77 | 108 | 1.0 | 2.0 | 0.00 | 0.00 | 0.00 | 87 | 1006.6 |
| 20260505212804 | 77 | 108 | 1.0 | 2.0 | 0.00 | 0.00 | 0.00 | 87 | 1006.5 |
| 20260505212718 | 77 | 108 | 1.0 | 2.0 | 0.00 | 0.00 | 0.00 | 87 | 1006.4 |
| 20260505212704 | 77 | 108 | 2.0 | 2.0 | 0.00 | 0.00 | 0.00 | 87 | 1006.6 |
| 20260505212605 | 77 | 108 | 1.0 | 2.0 | 0.00 | 0.00 | 0.00 | 87 | 1006.5 |
| 20260505212520 | 77 | 112 | 0.0 | 2.0 | 0.00 | 0.00 | 0.00 | 87 | 1006.7 |
| 20260505212203 | 77 | 106 | 2.0 | 2.0 | 0.00 | 0.00 | 0.00 | 87 | 1006.5 |
| 20260505212104 | 77 | 103 | 1.0 | 2.0 | 0.00 | 0.00 | 0.00 | 87 | 1006.6 |
| 20260505212007 | 77 | 98 | 1.0 | 2.0 | 0.00 | 0.00 | 0.00 | 87 | 1006.3 |
| 20260505211904 | 77 | 97 | 0.0 | 2.0 | 0.00 | 0.00 | 0.00 | 87 | 1006.6 |
| 20260505211805 | 77 | 97 | 0.0 | 2.0 | 0.00 | 0.00 | 0.00 | 87 | 1006.2 |
| 20260505211704 | 77 | 93 | 2.0 | 2.0 | 0.00 | 0.00 | 0.00 | 87 | 1006.4 |
| 20260505211604 | 77 | 90 | 0.0 | 2.0 | 0.00 | 0.00 | 0.00 | 87 | 1006.5 |
| 20260505211504 | 77 | 90 | 1.0 | 2.0 | 0.00 | 0.00 | 0.00 | 87 | 1006.3 |
| 20260505211303 | 77 | 90 | 0.0 | 2.0 | 0.00 | 0.00 | 0.00 | 87 | 1006.1 |
| 20260505211204 | 77 | 90 | 1.0 | 2.0 | 0.00 | 0.00 | 0.00 | 87 | 1006.3 |
| 20260505211103 | 77 | 90 | 0.0 | 2.0 | 0.00 | 0.00 | 0.00 | 87 | 1006.5 |
| 20260505211005 | 77 | 90 | 0.0 | 2.0 | 0.00 | 0.00 | 0.00 | 87 | 1006.3 |
| 20260505210904 | 77 | 90 | 0.0 | 2.0 | 0.00 | 0.00 | 0.00 | 87 | 1006.5 |
| 20260505210705 | 77 | 90 | 1.0 | 2.0 | 0.00 | 0.00 | 0.00 | 87 | 1006.5 |
| 20260505210603 | 77 | 90 | 1.0 | 2.0 | 0.00 | 0.00 | 0.00 | 87 | 1006.8 |
| 20260505210504 | 77 | 90 | 1.0 | 2.0 | 0.00 | 0.00 | 0.00 | 87 | 1006.3 |
| 20260505210404 | 77 | 90 | 0.0 | 2.0 | 0.00 | 0.00 | 0.00 | 87 | 1006.4 |
| 20260505210204 | 77 | 88 | 0.0 | 2.0 | 0.00 | 0.00 | 0.00 | 87 | 1006.4 |
| 20260505210104 | 77 | 83 | 0.0 | 2.0 | 0.00 | 0.00 | 0.00 | 87 | 1006.2 |
| 20260505210004 | 77 | 79 | 0.0 | 2.0 | 0.00 | 0.00 | 0.00 | 87 | 1006.5 |
| 20260505205904 | 77 | 76 | 1.0 | 2.0 | 0.00 | 0.00 | 0.00 | 87 | 1006.5 |
| 20260505205803 | 77 | 73 | 1.0 | 2.0 | 0.00 | 0.00 | 0.00 | 87 | 1006.4 |
| 20260505205603 | 77 | 67 | 1.0 | 2.0 | 0.00 | 0.00 | 0.00 | 87 | 1006.5 |
| 20260505205504 | 77 | 67 | 1.0 | 2.0 | 0.00 | 0.00 | 0.00 | 87 | 1006.3 |
| 20260505205403 | 77 | 67 | 0.0 | 2.0 | 0.00 | 0.00 | 0.00 | 87 | 1006.4 |
| 20260505205305 | 77 | 67 | 1.0 | 2.0 | 0.00 | 0.00 | 0.00 | 87 | 1006.4 |
| 20260505205205 | 77 | 67 | 0.0 | 2.0 | 0.00 | 0.00 | 0.00 | 87 | 1006.3 |
| 20260505205105 | 77 | 67 | 0.0 | 2.0 | 0.00 | 0.00 | 0.00 | 87 | 1006.3 |
| 20260505205003 | 77 | 67 | 1.0 | 2.0 | 0.00 | 0.00 | 0.00 | 87 | 1006.4 |
| 20260505204903 | 77 | 67 | 1.0 | 2.0 | 0.00 | 0.00 | 0.00 | 87 | 1006.4 |
| 20260505204803 | 77 | 67 | 0.0 | 2.0 | 0.00 | 0.00 | 0.00 | 87 | 1006.5 |
| 20260505204603 | 77 | 67 | 0.0 | 2.0 | 0.00 | 0.00 | 0.00 | 87 | 1006.6 |
| 20260505204505 | 77 | 67 | 0.0 | 2.0 | 0.00 | 0.00 | 0.00 | 87 | 1006.6 |
| 20260505204403 | 77 | 67 | 0.0 | 2.0 | 0.00 | 0.00 | 0.00 | 87 | 1006.2 |
| 20260505204303 | 77 | 67 | 0.0 | 2.0 | 0.00 | 0.00 | 0.00 | 87 | 1006.3 |
| 20260505204203 | 77 | 0 | 0.0 | 0.0 | 0.00 | 0.00 | 0.00 | 87 | 1006.3 |
| 20260505204017 | 77 | 0 | 0.0 | 0.0 | 0.00 | 0.00 | 0.00 | 87 | 1006.5 |
| 20260505203903 | 77 | 67 | 0.0 | 2.0 | 0.00 | 0.00 | 0.00 | 87 | 1006.4 |
| 20260505203814 | 77 | 67 | 0.0 | 2.0 | 0.00 | 0.00 | 0.00 | 87 | 1006.3 |
| 20260505203703 | 77 | 67 | 0.0 | 2.0 | 0.00 | 0.00 | 0.00 | 87 | 1006.5 |
| 20260505203503 | 77 | 67 | 0.0 | 2.0 | 0.00 | 0.00 | 0.00 | 87 | 1006.3 |
| 20260505203405 | 77 | 67 | 0.0 | 2.0 | 0.00 | 0.00 | 0.00 | 87 | 1006.4 |
| 20260505203304 | 77 | 67 | 0.0 | 2.0 | 0.00 | 0.00 | 0.00 | 86 | 1006.5 |
| 20260505203204 | 77 | 67 | 0.0 | 2.0 | 0.00 | 0.00 | 0.00 | 86 | 1006.5 |
| 20260505203104 | 77 | 68 | 1.0 | 2.0 | 0.00 | 0.00 | 0.00 | 86 | 1006.4 |
| 20260505203004 | 77 | 74 | 2.0 | 2.0 | 0.00 | 0.00 | 0.00 | 86 | 1006.5 |
| 20260505202916 | 77 | 79 | 0.0 | 2.0 | 0.00 | 0.00 | 0.00 | 86 | 1006.2 |
| 20260505202905 | 77 | 78 | 0.0 | 2.0 | 0.00 | 0.00 | 0.00 | 86 | 1006.2 |
| 20260505202803 | 78 | 74 | 1.0 | 2.0 | 0.00 | 0.00 | 0.00 | 86 | 1006.5 |
| 20260505202604 | 78 | 67 | 2.0 | 2.0 | 0.00 | 0.00 | 0.00 | 86 | 1006.1 |
| 20260505202505 | 78 | 53 | 2.0 | 2.0 | 0.00 | 0.00 | 0.00 | 86 | 1006.3 |
| 20260505202405 | 78 | 45 | 0.0 | 2.0 | 0.00 | 0.00 | 0.00 | 86 | 1006.3 |
| 20260505202306 | 78 | 44 | 1.0 | 2.0 | 0.00 | 0.00 | 0.00 | 86 | 1006.4 |
| 20260505202204 | 78 | 40 | 0.0 | 2.0 | 0.00 | 0.00 | 0.00 | 86 | 1006.2 |
| 20260505202104 | 78 | 35 | 0.0 | 2.0 | 0.00 | 0.00 | 0.00 | 86 | 1006.3 |
| 20260505202004 | 78 | 41 | 0.0 | 2.0 | 0.00 | 0.00 | 0.00 | 86 | 1006.4 |
| 20260505201904 | 78 | 48 | 1.0 | 4.0 | 0.00 | 0.00 | 0.00 | 86 | 1006.4 |
| 20260505201804 | 78 | 48 | 1.0 | 4.0 | 0.00 | 0.00 | 0.00 | 86 | 1006.2 |
| 20260505201719 | 78 | 53 | 2.0 | 4.0 | 0.00 | 0.00 | 0.00 | 86 | 1006.4 |
| 20260505201704 | 78 | 55 | 2.0 | 4.0 | 0.00 | 0.00 | 0.00 | 86 | 1006.4 |
| 20260505201613 | 78 | 66 | 2.0 | 4.0 | 0.00 | 0.00 | 0.00 | 86 | 1006.4 |
| 20260505201604 | 78 | 70 | 2.0 | 4.0 | 0.00 | 0.00 | 0.00 | 86 | 1006.4 |
| 20260505201303 | 78 | 90 | 0.0 | 2.0 | 0.00 | 0.00 | 0.00 | 86 | 1006.1 |
| 20260505201204 | 78 | 90 | 0.0 | 2.0 | 0.00 | 0.00 | 0.00 | 86 | 1006.0 |
| 20260505201116 | 78 | 90 | 0.0 | 2.0 | 0.00 | 0.00 | 0.00 | 86 | 1006.4 |
| 20260505201104 | 78 | 88 | 0.0 | 2.0 | 0.00 | 0.00 | 0.00 | 86 | 1006.2 |
| 20260505201004 | 78 | 84 | 0.0 | 2.0 | 0.00 | 0.00 | 0.00 | 86 | 1006.3 |
| 20260505200804 | 78 | 86 | 0.0 | 2.0 | 0.00 | 0.00 | 0.00 | 86 | 1006.3 |
| 20260505200703 | 78 | 90 | 0.0 | 2.0 | 0.00 | 0.00 | 0.00 | 86 | 1006.3 |
| 20260505200606 | 78 | 90 | 1.0 | 2.0 | 0.00 | 0.00 | 0.00 | 86 | 1006.4 |
| 20260505200504 | 78 | 94 | 1.0 | 2.0 | 0.00 | 0.00 | 0.00 | 86 | 1006.3 |
| 20260505200404 | 78 | 95 | 1.0 | 2.0 | 0.00 | 0.00 | 0.00 | 86 | 1006.4 |
| 20260505200303 | 78 | 95 | 1.0 | 2.0 | 0.00 | 0.00 | 0.00 | 86 | 1006.4 |
| 20260505200204 | 78 | 92 | 0.0 | 2.0 | 0.00 | 0.00 | 0.00 | 86 | 1006.4 |
| 20260505200105 | 78 | 89 | 0.0 | 2.0 | 0.00 | 0.00 | 0.00 | 86 | 1006.4 |
| 20260505200004 | 78 | 86 | 1.0 | 2.0 | 0.00 | 0.00 | 0.00 | 86 | 1006.3 |
| 20260505195919 | 78 | 86 | 1.0 | 2.0 | 0.00 | 0.00 | 0.00 | 86 | 1006.5 |
| 20260505195905 | 78 | 87 | 0.0 | 2.0 | 0.00 | 0.00 | 0.00 | 86 | 1006.4 |
| 20260505195805 | 78 | 89 | 0.0 | 2.0 | 0.00 | 0.00 | 0.00 | 86 | 1006.3 |
| 20260505195716 | 78 | 91 | 1.0 | 2.0 | 0.00 | 0.00 | 0.00 | 86 | 1006.5 |
| 20260505195404 | 78 | 95 | 1.0 | 2.0 | 0.00 | 0.00 | 0.00 | 85 | 1006.2 |
| 20260505195305 | 78 | 82 | 0.0 | 2.0 | 0.00 | 0.00 | 0.00 | 85 | 1006.2 |
| 20260505195103 | 78 | 67 | 1.0 | 2.0 | 0.00 | 0.00 | 0.00 | 85 | 1006.5 |
| 20260505195005 | 78 | 67 | 2.0 | 2.0 | 0.00 | 0.00 | 0.00 | 85 | 1006.5 |
| 20260505194903 | 78 | 66 | 2.0 | 2.0 | 0.00 | 0.00 | 0.00 | 85 | 1006.2 |
| 20260505194803 | 78 | 86 | 0.0 | 2.0 | 0.00 | 0.00 | 0.00 | 85 | 1006.3 |
| 20260505194708 | 78 | 90 | 0.0 | 2.0 | 0.00 | 0.00 | 0.00 | 85 | 1006.3 |
| 20260505194603 | 79 | 88 | 0.0 | 4.0 | 0.00 | 0.00 | 0.00 | 85 | 1006.2 |
| 20260505194503 | 78 | 86 | 0.0 | 4.0 | 0.00 | 0.00 | 0.00 | 85 | 1006.1 |
| 20260505194405 | 78 | 87 | 0.0 | 4.0 | 0.00 | 0.00 | 0.00 | 85 | 1006.3 |
| 20260505194316 | 78 | 83 | 1.0 | 4.0 | 0.00 | 0.00 | 0.00 | 85 | 1006.4 |
| 20260505194303 | 78 | 84 | 1.0 | 4.0 | 0.00 | 0.00 | 0.00 | 85 | 1006.1 |
| 20260505194207 | 78 | 84 | 3.0 | 4.0 | 0.00 | 0.00 | 0.00 | 85 | 1006.3 |
| 20260505194114 | 79 | 80 | 1.0 | 2.0 | 0.00 | 0.00 | 0.00 | 85 | 1006.3 |
| 20260505194003 | 79 | 77 | 1.0 | 2.0 | 0.00 | 0.00 | 0.00 | 85 | 1006.4 |
| 20260505193916 | 79 | 69 | 1.0 | 2.0 | 0.00 | 0.00 | 0.00 | 85 | 1006.5 |
| 20260505193803 | 79 | 55 | 1.0 | 4.0 | 0.00 | 0.00 | 0.00 | 84 | 1006.4 |
| 20260505193718 | 79 | 49 | 1.0 | 4.0 | 0.00 | 0.00 | 0.00 | 84 | 1006.2 |
| 20260505193605 | 79 | 47 | 0.0 | 4.0 | 0.00 | 0.00 | 0.00 | 84 | 1006.4 |
| 20260505193404 | 79 | 59 | 2.0 | 4.0 | 0.00 | 0.00 | 0.00 | 84 | 1006.3 |
| 20260505193306 | 79 | 91 | 1.0 | 2.0 | 0.00 | 0.00 | 0.00 | 84 | 1006.5 |
| 20260505193204 | 79 | 104 | 1.0 | 4.0 | 0.00 | 0.00 | 0.00 | 84 | 1006.3 |
| 20260505193104 | 79 | 112 | 0.0 | 4.0 | 0.00 | 0.00 | 0.00 | 84 | 1006.5 |
| 20260505193004 | 79 | 112 | 0.0 | 4.0 | 0.00 | 0.00 | 0.00 | 84 | 1006.4 |
| 20260505192904 | 79 | 109 | 0.0 | 4.0 | 0.00 | 0.00 | 0.00 | 84 | 1006.5 |
| 20260505192805 | 79 | 101 | 1.0 | 4.0 | 0.00 | 0.00 | 0.00 | 84 | 1006.4 |
| 20260505192704 | 79 | 99 | 2.0 | 4.0 | 0.00 | 0.00 | 0.00 | 84 | 1006.4 |
| 20260505192604 | 79 | 96 | 1.0 | 4.0 | 0.00 | 0.00 | 0.00 | 83 | 1006.4 |
| 20260505192505 | 79 | 90 | 0.0 | 4.0 | 0.00 | 0.00 | 0.00 | 83 | 1006.5 |
| 20260505192415 | 79 | 91 | 1.0 | 4.0 | 0.00 | 0.00 | 0.00 | 83 | 1006.4 |
| 20260505192404 | 79 | 92 | 1.0 | 4.0 | 0.00 | 0.00 | 0.00 | 83 | 1006.4 |
| 20260505192305 | 79 | 98 | 2.0 | 4.0 | 0.00 | 0.00 | 0.00 | 83 | 1006.4 |
| 20260505192105 | 80 | 99 | 0.0 | 2.0 | 0.00 | 0.00 | 0.00 | 83 | 1006.4 |
| 20260505192004 | 80 | 102 | 1.0 | 2.0 | 0.00 | 0.00 | 0.00 | 83 | 1006.7 |
| 20260505191908 | 79 | 106 | 1.0 | 2.0 | 0.00 | 0.00 | 0.00 | 83 | 1006.5 |
| 20260505191808 | 80 | 112 | 0.0 | 2.0 | 0.00 | 0.00 | 0.00 | 84 | 1006.4 |
| 20260505191704 | 80 | 112 | 1.0 | 2.0 | 0.00 | 0.00 | 0.00 | 84 | 1006.4 |
| 20260505191603 | 79 | 112 | 0.0 | 2.0 | 0.00 | 0.00 | 0.00 | 84 | 1006.5 |
| 20260505191505 | 79 | 112 | 1.0 | 2.0 | 0.00 | 0.00 | 0.00 | 84 | 1006.8 |
| 20260505191405 | 79 | 112 | 1.0 | 2.0 | 0.00 | 0.00 | 0.00 | 85 | 1006.5 |
| 20260505191307 | 79 | 112 | 0.0 | 2.0 | 0.00 | 0.00 | 0.00 | 85 | 1006.4 |
| 20260505191203 | 79 | 112 | 0.0 | 2.0 | 0.00 | 0.00 | 0.00 | 85 | 1006.3 |
| 20260505191116 | 79 | 112 | 1.0 | 2.0 | 0.00 | 0.00 | 0.00 | 85 | 1006.6 |
| 20260505191003 | 79 | 99 | 1.0 | 2.0 | 0.00 | 0.00 | 0.00 | 85 | 1006.5 |
| 20260505190919 | 79 | 83 | 1.0 | 2.0 | 0.00 | 0.00 | 0.00 | 85 | 1006.5 |
| 20260505190803 | 79 | 61 | 0.0 | 2.0 | 0.00 | 0.00 | 0.00 | 86 | 1006.7 |
| 20260505190604 | 78 | 22 | 1.0 | 2.0 | 0.00 | 0.00 | 0.00 | 86 | 1006.7 |
| 20260505190503 | 78 | 22 | 1.0 | 2.0 | 0.00 | 0.00 | 0.00 | 86 | 1006.8 |
| 20260505190405 | 78 | 22 | 1.0 | 2.0 | 0.00 | 0.00 | 0.00 | 86 | 1006.7 |
| 20260505190304 | 79 | 0 | 0.0 | 0.0 | 0.00 | 0.00 | 0.00 | 86 | 1006.6 |
| 20260505190204 | 79 | 0 | 0.0 | 0.0 | 0.00 | 0.00 | 0.00 | 86 | 1006.7 |
| 20260505190103 | 78 | 0 | 0.0 | 0.0 | 0.00 | 0.00 | 0.00 | 86 | 1006.8 |
| 20260505190007 | 78 | 360 | 0.0 | 2.0 | 0.00 | 0.00 | 0.00 | 86 | 1006.8 |
| 20260505185907 | 78 | 360 | 0.0 | 2.0 | 0.00 | 0.00 | 0.00 | 86 | 1006.6 |
| 20260505185803 | 78 | 360 | 0.0 | 2.0 | 0.00 | 0.00 | 0.00 | 86 | 1006.8 |
| 20260505185703 | 78 | 360 | 0.0 | 2.0 | 0.00 | 0.00 | 0.00 | 86 | 1006.7 |
| 20260505185603 | 78 | 360 | 0.0 | 2.0 | 0.00 | 0.00 | 0.00 | 86 | 1006.8 |
| 20260505185503 | 78 | 360 | 2.0 | 4.0 | 0.00 | 0.00 | 0.00 | 85 | 1006.9 |
| 20260505185403 | 78 | 5 | 1.0 | 4.0 | 0.00 | 0.00 | 0.00 | 85 | 1006.8 |
| 20260505185305 | 78 | 45 | 0.0 | 4.0 | 0.00 | 0.00 | 0.00 | 85 | 1006.8 |
| 20260505185215 | 78 | 65 | 1.0 | 4.0 | 0.00 | 0.00 | 0.00 | 85 | 1006.7 |
| 20260505185203 | 78 | 71 | 1.0 | 4.0 | 0.00 | 0.00 | 0.00 | 85 | 1006.7 |
| 20260505185105 | 78 | 63 | 1.0 | 4.0 | 0.00 | 0.00 | 0.00 | 85 | 1006.9 |
| 20260505184905 | 79 | 75 | 2.0 | 4.0 | 0.00 | 0.00 | 0.00 | 84 | 1006.6 |
| 20260505184814 | 79 | 67 | 2.0 | 4.0 | 0.00 | 0.00 | 0.00 | 84 | 1006.8 |
| 20260505184806 | 79 | 65 | 2.0 | 4.0 | 0.00 | 0.00 | 0.00 | 84 | 1006.8 |
| 20260505184718 | 79 | 60 | 2.0 | 4.0 | 0.00 | 0.00 | 0.00 | 83 | 1006.8 |
| 20260505184703 | 79 | 60 | 1.0 | 4.0 | 0.00 | 0.00 | 0.00 | 83 | 1006.8 |
| 20260505184403 | 79 | 88 | 1.0 | 4.0 | 0.00 | 0.00 | 0.00 | 83 | 1006.9 |
| 20260505184305 | 80 | 77 | 1.0 | 4.0 | 0.00 | 0.00 | 0.00 | 83 | 1006.8 |
| 20260505184204 | 79 | 72 | 1.0 | 4.0 | 0.00 | 0.00 | 0.00 | 83 | 1006.9 |
| 20260505184104 | 79 | 77 | 0.0 | 4.0 | 0.00 | 0.00 | 0.00 | 82 | 1006.8 |
| 20260505184004 | 79 | 79 | 1.0 | 4.0 | 0.00 | 0.00 | 0.00 | 82 | 1006.7 |
| 20260505183904 | 79 | 88 | 1.0 | 4.0 | 0.00 | 0.00 | 0.00 | 82 | 1006.9 |
| 20260505183803 | 79 | 95 | 2.0 | 4.0 | 0.00 | 0.00 | 0.00 | 82 | 1006.8 |
| 20260505183705 | 79 | 100 | 2.0 | 4.0 | 0.00 | 0.00 | 0.00 | 82 | 1006.8 |
| 20260505183603 | 79 | 103 | 2.0 | 4.0 | 0.00 | 0.00 | 0.00 | 82 | 1006.8 |
| 20260505183504 | 80 | 106 | 2.0 | 4.0 | 0.00 | 0.00 | 0.00 | 82 | 1006.9 |
| 20260505183403 | 80 | 107 | 3.0 | 4.0 | 0.00 | 0.00 | 0.00 | 81 | 1006.8 |
| 20260505183304 | 80 | 107 | 2.0 | 4.0 | 0.00 | 0.00 | 0.00 | 81 | 1007.0 |
| 20260505183203 | 80 | 112 | 1.0 | 4.0 | 0.00 | 0.00 | 0.00 | 81 | 1006.8 |
| 20260505183120 | 80 | 106 | 2.0 | 4.0 | 0.00 | 0.00 | 0.00 | 81 | 1006.7 |
| 20260505183104 | 80 | 102 | 1.0 | 4.0 | 0.00 | 0.00 | 0.00 | 81 | 1006.8 |
| 20260505183004 | 80 | 97 | 1.0 | 2.0 | 0.00 | 0.00 | 0.00 | 81 | 1006.8 |
| 20260505182917 | 80 | 97 | 0.0 | 2.0 | 0.00 | 0.00 | 0.00 | 81 | 1006.9 |
| 20260505182803 | 80 | 95 | 1.0 | 2.0 | 0.00 | 0.00 | 0.00 | 81 | 1006.9 |
| 20260505182605 | 80 | 75 | 1.0 | 2.0 | 0.00 | 0.00 | 0.00 | 81 | 1006.9 |
| 20260505182505 | 80 | 68 | 1.0 | 2.0 | 0.00 | 0.00 | 0.00 | 81 | 1006.6 |
| 20260505182406 | 80 | 60 | 1.0 | 2.0 | 0.00 | 0.00 | 0.00 | 81 | 1006.8 |
| 20260505182306 | 80 | 45 | 2.0 | 2.0 | 0.00 | 0.00 | 0.00 | 81 | 1006.8 |
| 20260505182204 | 80 | 45 | 1.0 | 2.0 | 0.00 | 0.00 | 0.00 | 81 | 1006.8 |
| 20260505182104 | 80 | 45 | 0.0 | 2.0 | 0.00 | 0.00 | 0.00 | 82 | 1006.8 |
| 20260505182003 | 80 | 41 | 0.0 | 2.0 | 0.00 | 0.00 | 0.00 | 82 | 1006.9 |
| 20260505181905 | 80 | 38 | 1.0 | 2.0 | 0.00 | 0.00 | 0.00 | 82 | 1006.7 |
| 20260505181803 | 79 | 36 | 1.0 | 4.0 | 0.00 | 0.00 | 0.00 | 82 | 1006.8 |
| 20260505181704 | 79 | 29 | 2.0 | 4.0 | 0.00 | 0.00 | 0.00 | 82 | 1006.7 |
| 20260505181604 | 80 | 22 | 1.0 | 4.0 | 0.00 | 0.00 | 0.00 | 82 | 1006.9 |
| 20260505181504 | 79 | 17 | 1.0 | 4.0 | 0.00 | 0.00 | 0.00 | 81 | 1006.9 |
| 20260505181405 | 80 | 15 | 1.0 | 4.0 | 0.00 | 0.00 | 0.00 | 81 | 1006.8 |
| 20260505181303 | 80 | 5 | 2.0 | 4.0 | 0.00 | 0.00 | 0.00 | 81 | 1006.8 |
| 20260505181204 | 80 | 360 | 1.0 | 2.0 | 0.00 | 0.00 | 0.00 | 81 | 1006.8 |
| 20260505181117 | 80 | 360 | 1.0 | 2.0 | 0.00 | 0.00 | 0.00 | 81 | 1006.9 |
| 20260505181103 | 80 | 2 | 2.0 | 2.0 | 0.00 | 0.00 | 0.00 | 80 | 1006.7 |
| 20260505180803 | 80 | 18 | 0.0 | 2.0 | 0.00 | 0.00 | 0.00 | 81 | 1006.8 |
| 20260505180705 | 80 | 22 | 1.0 | 2.0 | 0.00 | 0.00 | 0.00 | 81 | 1006.9 |
| 20260505180603 | 80 | 25 | 1.0 | 2.0 | 0.00 | 0.00 | 0.00 | 81 | 1006.6 |
| 20260505180503 | 80 | 16 | 2.0 | 2.0 | 0.00 | 0.00 | 0.00 | 80 | 1006.7 |
| 20260505180406 | 80 | 15 | 1.0 | 2.0 | 0.00 | 0.00 | 0.00 | 80 | 1006.7 |
| 20260505180307 | 80 | 17 | 1.0 | 2.0 | 0.00 | 0.00 | 0.00 | 80 | 1006.9 |
| 20260505180203 | 80 | 28 | 0.0 | 4.0 | 0.00 | 0.00 | 0.00 | 80 | 1006.8 |
| 20260505180104 | 80 | 53 | 0.0 | 4.0 | 0.00 | 0.00 | 0.00 | 80 | 1006.7 |
| 20260505180004 | 80 | 70 | 2.0 | 4.0 | 0.00 | 0.00 | 0.00 | 80 | 1006.6 |
| 20260505175905 | 80 | 83 | 1.0 | 4.0 | 0.00 | 0.00 | 0.00 | 80 | 1006.9 |
| 20260505175804 | 80 | 91 | 2.0 | 4.0 | 0.00 | 0.00 | 0.00 | 80 | 1006.8 |
| 20260505175703 | 80 | 94 | 2.0 | 4.0 | 0.00 | 0.00 | 0.00 | 80 | 1006.8 |
| 20260505175604 | 80 | 76 | 0.0 | 4.0 | 0.00 | 0.00 | 0.00 | 80 | 1006.8 |
| 20260505175503 | 80 | 72 | 0.0 | 4.0 | 0.00 | 0.00 | 0.00 | 81 | 1006.9 |
| 20260505175405 | 80 | 72 | 1.0 | 4.0 | 0.00 | 0.00 | 0.00 | 81 | 1006.9 |
| 20260505175306 | 80 | 64 | 2.0 | 4.0 | 0.00 | 0.00 | 0.00 | 81 | 1006.9 |
| 20260505175204 | 80 | 46 | 2.0 | 2.0 | 0.00 | 0.00 | 0.00 | 81 | 1007.0 |
| 20260505175103 | 80 | 52 | 1.0 | 2.0 | 0.00 | 0.00 | 0.00 | 80 | 1006.9 |
| 20260505175004 | 80 | 51 | 1.0 | 2.0 | 0.00 | 0.00 | 0.00 | 80 | 1007.0 |
| 20260505174904 | 80 | 36 | 0.0 | 2.0 | 0.00 | 0.00 | 0.00 | 80 | 1007.0 |
| 20260505174815 | 80 | 32 | 1.0 | 2.0 | 0.00 | 0.00 | 0.00 | 80 | 1007.0 |
| 20260505174804 | 80 | 30 | 1.0 | 2.0 | 0.00 | 0.00 | 0.00 | 80 | 1007.0 |
| 20260505174705 | 80 | 35 | 1.0 | 4.0 | 0.00 | 0.00 | 0.00 | 80 | 1006.8 |
| 20260505174505 | 80 | 46 | 2.0 | 4.0 | 0.00 | 0.00 | 0.00 | 80 | 1007.0 |
| 20260505174404 | 81 | 53 | 1.0 | 4.0 | 0.00 | 0.00 | 0.00 | 80 | 1007.1 |
| 20260505174305 | 80 | 65 | 1.0 | 4.0 | 0.00 | 0.00 | 0.00 | 80 | 1007.0 |
| 20260505174204 | 80 | 71 | 2.0 | 4.0 | 0.00 | 0.00 | 0.00 | 80 | 1006.8 |
| 20260505174115 | 80 | 76 | 2.0 | 4.0 | 0.00 | 0.00 | 0.00 | 80 | 1006.9 |
| 20260505174104 | 80 | 74 | 2.0 | 4.0 | 0.00 | 0.00 | 0.00 | 80 | 1006.9 |
| 20260505173917 | 81 | 79 | 1.0 | 4.0 | 0.00 | 0.00 | 0.00 | 80 | 1006.9 |
| 20260505173807 | 80 | 79 | 1.0 | 4.0 | 0.00 | 0.00 | 0.00 | 81 | 1007.0 |
| 20260505173503 | 80 | 91 | 2.0 | 4.0 | 0.00 | 0.00 | 0.00 | 81 | 1007.0 |
| 20260505173404 | 80 | 87 | 1.0 | 4.0 | 0.00 | 0.00 | 0.00 | 80 | 1007.0 |
| 20260505173303 | 80 | 86 | 2.0 | 4.0 | 0.00 | 0.00 | 0.00 | 80 | 1007.0 |
| 20260505173217 | 80 | 83 | 2.0 | 4.0 | 0.00 | 0.00 | 0.00 | 80 | 1007.1 |
| 20260505173104 | 80 | 81 | 2.0 | 4.0 | 0.00 | 0.00 | 0.00 | 79 | 1007.0 |
| 20260505173014 | 81 | 77 | 2.0 | 4.0 | 0.00 | 0.00 | 0.00 | 79 | 1007.1 |
| 20260505172904 | 81 | 76 | 2.0 | 4.0 | 0.00 | 0.00 | 0.00 | 79 | 1007.0 |
| 20260505172704 | 81 | 48 | 2.0 | 4.0 | 0.00 | 0.00 | 0.00 | 80 | 1006.8 |
| 20260505172603 | 80 | 44 | 1.0 | 4.0 | 0.00 | 0.00 | 0.00 | 80 | 1007.2 |
| 20260505172504 | 80 | 45 | 0.0 | 4.0 | 0.00 | 0.00 | 0.00 | 81 | 1007.1 |
| 20260505172416 | 80 | 48 | 1.0 | 4.0 | 0.00 | 0.00 | 0.00 | 81 | 1007.2 |
| 20260505172407 | 80 | 50 | 1.0 | 4.0 | 0.00 | 0.00 | 0.00 | 81 | 1007.2 |
| 20260505172306 | 80 | 64 | 2.0 | 2.0 | 0.00 | 0.00 | 0.00 | 80 | 1007.2 |
| 20260505172105 | 80 | 85 | 1.0 | 2.0 | 0.00 | 0.00 | 0.00 | 81 | 1007.3 |
| 20260505172005 | 80 | 81 | 1.0 | 2.0 | 0.00 | 0.00 | 0.00 | 81 | 1007.3 |
| 20260505171908 | 80 | 73 | 1.0 | 2.0 | 0.00 | 0.00 | 0.00 | 81 | 1007.5 |
| 20260505171804 | 80 | 70 | 0.0 | 2.0 | 0.00 | 0.00 | 0.00 | 81 | 1007.6 |
| 20260505171703 | 80 | 48 | 0.0 | 2.0 | 0.00 | 0.00 | 0.00 | 82 | 1007.4 |
| 20260505171603 | 80 | 20 | 1.0 | 2.0 | 0.00 | 0.00 | 0.00 | 82 | 1007.3 |
| 20260505171507 | 79 | 4 | 1.0 | 2.0 | 0.00 | 0.00 | 0.00 | 82 | 1007.0 |
| 20260505171405 | 79 | 360 | 0.0 | 2.0 | 0.00 | 0.00 | 0.00 | 82 | 1007.1 |
| 20260505171305 | 78 | 360 | 0.0 | 4.0 | 0.00 | 0.00 | 0.00 | 82 | 1007.4 |
| 20260505171203 | 78 | 360 | 0.0 | 4.0 | 0.00 | 0.00 | 0.00 | 83 | 1007.4 |
| 20260505171103 | 78 | 2 | 1.0 | 4.0 | 0.00 | 0.00 | 0.00 | 83 | 1007.4 |
| 20260505171003 | 78 | 7 | 0.0 | 4.0 | 0.00 | 0.00 | 0.00 | 83 | 1007.4 |
| 20260505170906 | 78 | 22 | 1.0 | 4.0 | 0.00 | 0.00 | 0.00 | 83 | 1007.4 |
| 20260505170803 | 78 | 32 | 2.0 | 4.0 | 0.00 | 0.00 | 0.00 | 83 | 1007.3 |
| 20260505170704 | 78 | 32 | 2.0 | 4.0 | 0.00 | 0.00 | 0.00 | 83 | 1007.6 |
| 20260505170603 | 78 | 41 | 0.0 | 4.0 | 0.00 | 0.00 | 0.00 | 83 | 1007.4 |
| 20260505170504 | 78 | 44 | 2.0 | 4.0 | 0.00 | 0.00 | 0.00 | 83 | 1007.3 |
| 20260505170418 | 78 | 45 | 2.0 | 4.0 | 0.00 | 0.00 | 0.00 | 83 | 1007.5 |
| 20260505170403 | 78 | 43 | 2.0 | 4.0 | 0.00 | 0.00 | 0.00 | 83 | 1007.5 |
| 20260505170316 | 78 | 31 | 1.0 | 4.0 | 0.00 | 0.00 | 0.00 | 83 | 1007.6 |
| 20260505170305 | 78 | 30 | 2.0 | 4.0 | 0.00 | 0.00 | 0.00 | 83 | 1007.5 |
| 20260505170017 | 77 | 22 | 1.0 | 4.0 | 0.00 | 0.00 | 0.00 | 84 | 1007.4 |
| 20260505170004 | 77 | 24 | 1.0 | 4.0 | 0.00 | 0.00 | 0.00 | 84 | 1007.4 |
| 20260505165903 | 77 | 11 | 2.0 | 6.0 | 0.00 | 0.00 | 0.00 | 84 | 1007.5 |
| 20260505165703 | 77 | 9 | 2.0 | 6.0 | 0.00 | 0.00 | 0.00 | 84 | 1007.5 |
| 20260505165605 | 77 | 14 | 2.0 | 6.0 | 0.00 | 0.00 | 0.00 | 84 | 1007.6 |
| 20260505165504 | 77 | 13 | 2.0 | 6.0 | 0.00 | 0.00 | 0.00 | 84 | 1007.3 |
| 20260505165404 | 77 | 23 | 4.0 | 6.0 | 0.00 | 0.00 | 0.00 | 84 | 1007.4 |
| 20260505165306 | 77 | 46 | 4.0 | 6.0 | 0.00 | 0.00 | 0.00 | 84 | 1007.6 |
| 20260505165105 | 77 | 79 | 1.0 | 4.0 | 0.00 | 0.00 | 0.00 | 83 | 1007.4 |
| 20260505165007 | 77 | 77 | 2.0 | 4.0 | 0.00 | 0.00 | 0.00 | 84 | 1007.5 |
| 20260505164903 | 77 | 77 | 2.0 | 4.0 | 0.00 | 0.00 | 0.00 | 84 | 1007.3 |
| 20260505164803 | 77 | 75 | 2.0 | 4.0 | 0.00 | 0.00 | 0.00 | 83 | 1007.6 |
| 20260505164705 | 77 | 68 | 2.0 | 4.0 | 0.00 | 0.00 | 0.00 | 83 | 1007.4 |
| 20260505164605 | 77 | 62 | 1.0 | 2.0 | 0.00 | 0.00 | 0.00 | 84 | 1008.0 |
| 20260505164504 | 77 | 62 | 1.0 | 4.0 | 0.00 | 0.00 | 0.00 | 84 | 1007.7 |
| 20260505164404 | 77 | 70 | 0.0 | 4.0 | 0.00 | 0.00 | 0.00 | 84 | 1007.6 |
| 20260505164305 | 77 | 60 | 1.0 | 4.0 | 0.00 | 0.00 | 0.00 | 84 | 1007.8 |
| 20260505164204 | 76 | 46 | 1.0 | 4.0 | 0.00 | 0.00 | 0.00 | 84 | 1007.7 |
| 20260505164107 | 76 | 36 | 1.0 | 4.0 | 0.00 | 0.00 | 0.00 | 84 | 1007.7 |
| 20260505163803 | 76 | 22 | 2.0 | 4.0 | 0.00 | 0.00 | 0.00 | 84 | 1007.8 |
| 20260505163704 | 76 | 27 | 1.0 | 4.0 | 0.00 | 0.00 | 0.00 | 84 | 1007.8 |
| 20260505163605 | 77 | 27 | 0.0 | 4.0 | 0.00 | 0.00 | 0.00 | 84 | 1007.8 |
| 20260505163505 | 77 | 21 | 2.0 | 4.0 | 0.00 | 0.00 | 0.00 | 84 | 1007.8 |
| 20260505163404 | 77 | 14 | 1.0 | 4.0 | 0.00 | 0.00 | 0.00 | 84 | 1007.7 |
| 20260505163303 | 77 | 15 | 1.0 | 4.0 | 0.00 | 0.00 | 0.00 | 84 | 1007.8 |
| 20260505163205 | 77 | 16 | 1.0 | 4.0 | 0.00 | 0.00 | 0.00 | 84 | 1008.0 |
| 20260505163103 | 77 | 13 | 1.0 | 4.0 | 0.00 | 0.00 | 0.00 | 84 | 1007.9 |
| 20260505163004 | 77 | 31 | 0.0 | 4.0 | 0.00 | 0.00 | 0.00 | 84 | 1007.8 |
| 20260505162903 | 77 | 27 | 2.0 | 4.0 | 0.00 | 0.00 | 0.00 | 84 | 1007.7 |
| 20260505162705 | 76 | 43 | 2.0 | 4.0 | 0.00 | 0.00 | 0.00 | 84 | 1007.8 |
| 20260505162604 | 76 | 48 | 2.0 | 4.0 | 0.00 | 0.00 | 0.00 | 84 | 1008.0 |
| 20260505162504 | 76 | 27 | 2.0 | 4.0 | 0.00 | 0.00 | 0.00 | 84 | 1008.1 |
| 20260505162417 | 77 | 28 | 0.0 | 4.0 | 0.00 | 0.00 | 0.00 | 85 | 1007.9 |
| 20260505162403 | 77 | 30 | 0.0 | 4.0 | 0.00 | 0.00 | 0.00 | 85 | 1007.9 |
| 20260505162315 | 76 | 30 | 0.0 | 4.0 | 0.00 | 0.00 | 0.00 | 85 | 1008.0 |
| 20260505162306 | 76 | 29 | 1.0 | 4.0 | 0.00 | 0.00 | 0.00 | 85 | 1008.1 |
| 20260505162004 | 76 | 19 | 1.0 | 2.0 | 0.00 | 0.00 | 0.00 | 86 | 1008.1 |
| 20260505161903 | 76 | 35 | 1.0 | 2.0 | 0.00 | 0.00 | 0.00 | 86 | 1008.2 |
| 20260505161805 | 76 | 36 | 0.0 | 2.0 | 0.00 | 0.00 | 0.00 | 86 | 1008.0 |
| 20260505161703 | 76 | 27 | 1.0 | 2.0 | 0.00 | 0.00 | 0.00 | 86 | 1008.1 |
| 20260505161604 | 76 | 17 | 0.0 | 2.0 | 0.00 | 0.00 | 0.00 | 86 | 1008.1 |
| 20260505161505 | 75 | 9 | 1.0 | 4.0 | 0.00 | 0.00 | 0.00 | 86 | 1008.1 |
| 20260505161403 | 75 | 4 | 1.0 | 4.0 | 0.00 | 0.00 | 0.00 | 86 | 1008.0 |
| 20260505161304 | 75 | 352 | 1.0 | 4.0 | 0.00 | 0.00 | 0.00 | 86 | 1008.2 |
| 20260505161109 | 75 | 353 | 1.0 | 4.0 | 0.00 | 0.00 | 0.00 | 86 | 1008.1 |